<?xml version="1.0" encoding="UTF-8" standalone="no" ?>
<gpx xmlns="http://www.topografix.com/GPX/1/1" xmlns:xsi="http://www.w3.org/2001/XMLSchema-instance" xsi:schemaLocation="http://www.topografix.com/GPX/1/1 http://www.topografix.com/GPX/1/1/gpx.xsd" version="1.1" creator="VisuGPX - https://www.visugpx.com">
  <metadata>
    <name>Entre Beauce et Perche depuis Cloyes-sur-le-Loir</name>
  </metadata>
  <wpt lat="47.99734" lon="1.2332">
    <ele>98</ele>
    <name><![CDATA[Parking mairie]]></name>
  </wpt>
  <wpt lat="47.99538" lon="1.2299">
    <ele>104</ele>
    <name><![CDATA[Bifurcation Rue Saint-Michel]]></name>
  </wpt>
  <wpt lat="47.99032" lon="1.22651">
    <ele>102</ele>
    <name><![CDATA[Petit chemin à droite, après l']]></name>
  </wpt>
  <wpt lat="47.98503" lon="1.21725">
    <ele>134</ele>
    <name><![CDATA[La Maigrière]]></name>
  </wpt>
  <wpt lat="47.99097" lon="1.20532">
    <ele>134</ele>
    <name><![CDATA[La Durandière]]></name>
  </wpt>
  <wpt lat="47.99112" lon="1.18975">
    <ele>144</ele>
    <name><![CDATA[Les Fosses]]></name>
  </wpt>
  <wpt lat="48.00011" lon="1.18466">
    <ele>145</ele>
    <name><![CDATA[Chemin du bois de Villasse]]></name>
  </wpt>
  <wpt lat="48.00844" lon="1.19133">
    <ele>149</ele>
    <name><![CDATA[Château de Romainville]]></name>
  </wpt>
  <wpt lat="48.00283" lon="1.21086">
    <ele>118</ele>
    <name><![CDATA[Ruisseau Le Torrent]]></name>
  </wpt>
  <wpt lat="48.0106" lon="1.22442">
    <ele>140</ele>
    <name><![CDATA[Carrefour]]></name>
  </wpt>
  <wpt lat="48.01337" lon="1.23326">
    <ele>140</ele>
    <name><![CDATA[Château de Montigny-le-Ganelon]]></name>
  </wpt>
  <wpt lat="48.01128" lon="1.23502">
    <ele>106</ele>
    <name><![CDATA[Pont sur le]]></name>
  </wpt>
  <wpt lat="48.01016" lon="1.23654">
    <ele>104</ele>
    <name><![CDATA[Le Loir et le plan d'eau]]></name>
  </wpt>
  <wpt lat="48.01405" lon="1.25847">
    <ele>100</ele>
    <name><![CDATA[Le grand bois Gasnier]]></name>
  </wpt>
  <wpt lat="48.00428" lon="1.24586">
    <ele>105</ele>
    <name><![CDATA[Route D35]]></name>
  </wpt>
  <wpt lat="47.99697" lon="1.24092">
    <ele>111</ele>
    <name><![CDATA[Pont de chemin de fer]]></name>
  </wpt>
  <wpt lat="47.99733" lon="1.23329">
    <ele>98</ele>
    <name><![CDATA[Parking mairie]]></name>
  </wpt>
  <trk>
    <name><![CDATA[Entre Beauce et Perche depuis Cloyes-sur-le-Loir]]></name>
    <trkseg>
      <trkpt lat="47.99734" lon="1.2332">
        <ele>98</ele>
        <time>2020-09-04T09:17:20+02:00</time>
      </trkpt>
      <trkpt lat="47.9971" lon="1.2333">
        <ele>98</ele>
        <time>2021-03-05T16:49:06+01:00</time>
      </trkpt>
      <trkpt lat="47.99709" lon="1.23348">
        <ele>98</ele>
        <time>2021-03-05T16:49:11+01:00</time>
      </trkpt>
      <trkpt lat="47.99713" lon="1.2336">
        <ele>98</ele>
        <time>2021-03-05T16:49:16+01:00</time>
      </trkpt>
      <trkpt lat="47.99717" lon="1.23396">
        <ele>99</ele>
        <time>2020-09-04T09:17:20+02:00</time>
      </trkpt>
      <trkpt lat="47.99714" lon="1.23432">
        <ele>99</ele>
        <time>2020-09-04T09:19:28+02:00</time>
      </trkpt>
      <trkpt lat="47.99714" lon="1.23457">
        <ele>99</ele>
        <time>2020-09-04T09:19:28+02:00</time>
      </trkpt>
      <trkpt lat="47.99692" lon="1.23446">
        <ele>99</ele>
        <time>2020-09-04T09:19:28+02:00</time>
      </trkpt>
      <trkpt lat="47.99671" lon="1.2344">
        <ele>99</ele>
        <time>2020-09-04T09:19:28+02:00</time>
      </trkpt>
      <trkpt lat="47.99648" lon="1.23431">
        <ele>99</ele>
        <time>2020-09-04T09:19:28+02:00</time>
      </trkpt>
      <trkpt lat="47.99635" lon="1.2342">
        <ele>99</ele>
        <time>2021-03-05T16:49:51+01:00</time>
      </trkpt>
      <trkpt lat="47.99629" lon="1.23407">
        <ele>98</ele>
        <time>2020-09-04T09:19:28+02:00</time>
      </trkpt>
      <trkpt lat="47.99625" lon="1.23375">
        <ele>98</ele>
        <time>2020-09-04T09:21:36+02:00</time>
      </trkpt>
      <trkpt lat="47.99618" lon="1.23343">
        <ele>97</ele>
        <time>2020-09-04T09:21:36+02:00</time>
      </trkpt>
      <trkpt lat="47.9961" lon="1.23326">
        <ele>97</ele>
        <time>2021-03-05T16:50:11+01:00</time>
      </trkpt>
      <trkpt lat="47.99606" lon="1.23311">
        <ele>97</ele>
        <time>2020-09-04T09:21:36+02:00</time>
      </trkpt>
      <trkpt lat="47.99597" lon="1.23279">
        <ele>97</ele>
        <time>2020-09-04T09:21:36+02:00</time>
      </trkpt>
      <trkpt lat="47.99585" lon="1.23247">
        <ele>97</ele>
        <time>2020-09-04T09:21:36+02:00</time>
      </trkpt>
      <trkpt lat="47.99579" lon="1.23217">
        <ele>97</ele>
        <time>2020-09-04T09:21:36+02:00</time>
      </trkpt>
      <trkpt lat="47.99577" lon="1.23184">
        <ele>98</ele>
        <time>2020-09-04T09:21:36+02:00</time>
      </trkpt>
      <trkpt lat="47.99569" lon="1.23152">
        <ele>98</ele>
        <time>2020-09-04T09:23:44+02:00</time>
      </trkpt>
      <trkpt lat="47.99564" lon="1.23118">
        <ele>99</ele>
        <time>2020-09-04T09:23:44+02:00</time>
      </trkpt>
      <trkpt lat="47.99559" lon="1.23085">
        <ele>100</ele>
        <time>2020-09-04T09:23:44+02:00</time>
      </trkpt>
      <trkpt lat="47.99549" lon="1.23054">
        <ele>101</ele>
        <time>2020-09-04T09:23:44+02:00</time>
      </trkpt>
      <trkpt lat="47.99544" lon="1.23022">
        <ele>103</ele>
        <time>2020-09-04T09:23:44+02:00</time>
      </trkpt>
      <trkpt lat="47.99538" lon="1.2299">
        <ele>104</ele>
        <time>2020-09-04T09:23:44+02:00</time>
      </trkpt>
      <trkpt lat="47.99514" lon="1.22992">
        <ele>104</ele>
        <time>2020-09-04T09:25:52+02:00</time>
      </trkpt>
      <trkpt lat="47.99491" lon="1.22997">
        <ele>104</ele>
        <time>2020-09-04T09:25:52+02:00</time>
      </trkpt>
      <trkpt lat="47.9947" lon="1.22985">
        <ele>104</ele>
        <time>2020-09-04T09:25:52+02:00</time>
      </trkpt>
      <trkpt lat="47.99449" lon="1.22973">
        <ele>104</ele>
        <time>2020-09-04T09:25:52+02:00</time>
      </trkpt>
      <trkpt lat="47.99426" lon="1.22969">
        <ele>104</ele>
        <time>2020-09-04T09:25:52+02:00</time>
      </trkpt>
      <trkpt lat="47.99404" lon="1.22965">
        <ele>103</ele>
        <time>2020-09-04T09:25:52+02:00</time>
      </trkpt>
      <trkpt lat="47.99401" lon="1.2293">
        <ele>104</ele>
        <time>2020-09-04T09:28:00+02:00</time>
      </trkpt>
      <trkpt lat="47.99397" lon="1.22913">
        <ele>105</ele>
        <time>2021-03-05T16:51:46+01:00</time>
      </trkpt>
      <trkpt lat="47.99386" lon="1.2291">
        <ele>105</ele>
        <time>2020-09-04T09:28:00+02:00</time>
      </trkpt>
      <trkpt lat="47.99363" lon="1.22911">
        <ele>103</ele>
        <time>2020-09-04T09:28:00+02:00</time>
      </trkpt>
      <trkpt lat="47.9934" lon="1.22913">
        <ele>102</ele>
        <time>2020-09-04T09:28:00+02:00</time>
      </trkpt>
      <trkpt lat="47.99319" lon="1.22899">
        <ele>102</ele>
        <time>2020-09-04T09:28:00+02:00</time>
      </trkpt>
      <trkpt lat="47.99306" lon="1.22871">
        <ele>103</ele>
        <time>2020-09-04T09:28:00+02:00</time>
      </trkpt>
      <trkpt lat="47.99286" lon="1.22853">
        <ele>103</ele>
        <time>2020-09-04T09:30:08+02:00</time>
      </trkpt>
      <trkpt lat="47.99264" lon="1.22841">
        <ele>103</ele>
        <time>2020-09-04T09:30:08+02:00</time>
      </trkpt>
      <trkpt lat="47.99251" lon="1.22812">
        <ele>103</ele>
        <time>2020-09-04T09:30:08+02:00</time>
      </trkpt>
      <trkpt lat="47.99241" lon="1.2278">
        <ele>104</ele>
        <time>2020-09-04T09:30:08+02:00</time>
      </trkpt>
      <trkpt lat="47.99232" lon="1.22748">
        <ele>105</ele>
        <time>2020-09-04T09:30:08+02:00</time>
      </trkpt>
      <trkpt lat="47.99223" lon="1.22717">
        <ele>104</ele>
        <time>2020-09-04T09:30:08+02:00</time>
      </trkpt>
      <trkpt lat="47.99212" lon="1.22686">
        <ele>104</ele>
        <time>2020-09-04T09:30:08+02:00</time>
      </trkpt>
      <trkpt lat="47.99198" lon="1.2266">
        <ele>103</ele>
        <time>2020-09-04T09:32:16+02:00</time>
      </trkpt>
      <trkpt lat="47.99185" lon="1.22631">
        <ele>103</ele>
        <time>2020-09-04T09:32:16+02:00</time>
      </trkpt>
      <trkpt lat="47.99176" lon="1.226">
        <ele>103</ele>
        <time>2020-09-04T09:32:16+02:00</time>
      </trkpt>
      <trkpt lat="47.99162" lon="1.22575">
        <ele>103</ele>
        <time>2020-09-04T09:32:16+02:00</time>
      </trkpt>
      <trkpt lat="47.99152" lon="1.22543">
        <ele>105</ele>
        <time>2020-09-04T09:32:16+02:00</time>
      </trkpt>
      <trkpt lat="47.99137" lon="1.22519">
        <ele>104</ele>
        <time>2020-09-04T09:34:24+02:00</time>
      </trkpt>
      <trkpt lat="47.99114" lon="1.22524">
        <ele>103</ele>
        <time>2020-09-04T09:34:24+02:00</time>
      </trkpt>
      <trkpt lat="47.99092" lon="1.22538">
        <ele>101</ele>
        <time>2020-09-04T09:34:24+02:00</time>
      </trkpt>
      <trkpt lat="47.99074" lon="1.22558">
        <ele>101</ele>
        <time>2020-09-04T09:34:24+02:00</time>
      </trkpt>
      <trkpt lat="47.99053" lon="1.22571">
        <ele>101</ele>
        <time>2020-09-04T09:34:24+02:00</time>
      </trkpt>
      <trkpt lat="47.99034" lon="1.22592">
        <ele>102</ele>
        <time>2020-09-04T09:34:24+02:00</time>
      </trkpt>
      <trkpt lat="47.9902" lon="1.22599">
        <ele>102</ele>
        <time>2021-03-05T16:53:46+01:00</time>
      </trkpt>
      <trkpt lat="47.99028" lon="1.22628">
        <ele>102</ele>
        <time>2020-09-04T09:34:24+02:00</time>
      </trkpt>
      <trkpt lat="47.99032" lon="1.22651">
        <ele>102</ele>
        <time>2021-03-05T16:53:56+01:00</time>
      </trkpt>
      <trkpt lat="47.99022" lon="1.22655">
        <ele>102</ele>
        <time>2020-09-04T09:36:32+02:00</time>
      </trkpt>
      <trkpt lat="47.98999" lon="1.22664">
        <ele>103</ele>
        <time>2020-09-04T09:36:32+02:00</time>
      </trkpt>
      <trkpt lat="47.98976" lon="1.22669">
        <ele>105</ele>
        <time>2020-09-04T09:36:32+02:00</time>
      </trkpt>
      <trkpt lat="47.98953" lon="1.2267">
        <ele>108</ele>
        <time>2020-09-04T09:36:32+02:00</time>
      </trkpt>
      <trkpt lat="47.9893" lon="1.22668">
        <ele>110</ele>
        <time>2020-09-04T09:36:32+02:00</time>
      </trkpt>
      <trkpt lat="47.98907" lon="1.22662">
        <ele>112</ele>
        <time>2020-09-04T09:36:32+02:00</time>
      </trkpt>
      <trkpt lat="47.98886" lon="1.22651">
        <ele>114</ele>
        <time>2020-09-04T09:38:40+02:00</time>
      </trkpt>
      <trkpt lat="47.98867" lon="1.22631">
        <ele>117</ele>
        <time>2020-09-04T09:38:40+02:00</time>
      </trkpt>
      <trkpt lat="47.98849" lon="1.2261">
        <ele>119</ele>
        <time>2020-09-04T09:38:40+02:00</time>
      </trkpt>
      <trkpt lat="47.98831" lon="1.22587">
        <ele>122</ele>
        <time>2020-09-04T09:38:40+02:00</time>
      </trkpt>
      <trkpt lat="47.98813" lon="1.22565">
        <ele>122</ele>
        <time>2020-09-04T09:40:48+02:00</time>
      </trkpt>
      <trkpt lat="47.98792" lon="1.22551">
        <ele>123</ele>
        <time>2020-09-04T09:40:48+02:00</time>
      </trkpt>
      <trkpt lat="47.98773" lon="1.22532">
        <ele>124</ele>
        <time>2020-09-04T09:40:48+02:00</time>
      </trkpt>
      <trkpt lat="47.98755" lon="1.22513">
        <ele>126</ele>
        <time>2020-09-04T09:40:48+02:00</time>
      </trkpt>
      <trkpt lat="47.98737" lon="1.2249">
        <ele>126</ele>
        <time>2020-09-04T09:40:48+02:00</time>
      </trkpt>
      <trkpt lat="47.98721" lon="1.22465">
        <ele>126</ele>
        <time>2020-09-04T09:42:56+02:00</time>
      </trkpt>
      <trkpt lat="47.98706" lon="1.2244">
        <ele>126</ele>
        <time>2020-09-04T09:42:56+02:00</time>
      </trkpt>
      <trkpt lat="47.98688" lon="1.22418">
        <ele>125</ele>
        <time>2020-09-04T09:42:56+02:00</time>
      </trkpt>
      <trkpt lat="47.98667" lon="1.22405">
        <ele>125</ele>
        <time>2020-09-04T09:42:56+02:00</time>
      </trkpt>
      <trkpt lat="47.98645" lon="1.22394">
        <ele>126</ele>
        <time>2020-09-04T09:42:56+02:00</time>
      </trkpt>
      <trkpt lat="47.98634" lon="1.22391">
        <ele>126</ele>
        <time>2021-03-05T16:55:41+01:00</time>
      </trkpt>
      <trkpt lat="47.98626" lon="1.22375">
        <ele>126</ele>
        <time>2020-09-04T09:42:56+02:00</time>
      </trkpt>
      <trkpt lat="47.9861" lon="1.2235">
        <ele>126</ele>
        <time>2020-09-04T09:45:04+02:00</time>
      </trkpt>
      <trkpt lat="47.98595" lon="1.22324">
        <ele>126</ele>
        <time>2020-09-04T09:45:04+02:00</time>
      </trkpt>
      <trkpt lat="47.98589" lon="1.22291">
        <ele>126</ele>
        <time>2020-09-04T09:45:04+02:00</time>
      </trkpt>
      <trkpt lat="47.98584" lon="1.22257">
        <ele>125</ele>
        <time>2020-09-04T09:45:04+02:00</time>
      </trkpt>
      <trkpt lat="47.98577" lon="1.22225">
        <ele>125</ele>
        <time>2020-09-04T09:45:04+02:00</time>
      </trkpt>
      <trkpt lat="47.98572" lon="1.22191">
        <ele>125</ele>
        <time>2020-09-04T09:45:04+02:00</time>
      </trkpt>
      <trkpt lat="47.98567" lon="1.22158">
        <ele>125</ele>
        <time>2020-09-04T09:47:12+02:00</time>
      </trkpt>
      <trkpt lat="47.98567" lon="1.22124">
        <ele>126</ele>
        <time>2020-09-04T09:47:12+02:00</time>
      </trkpt>
      <trkpt lat="47.98568" lon="1.22089">
        <ele>126</ele>
        <time>2020-09-04T09:47:12+02:00</time>
      </trkpt>
      <trkpt lat="47.9856" lon="1.22057">
        <ele>127</ele>
        <time>2020-09-04T09:47:12+02:00</time>
      </trkpt>
      <trkpt lat="47.98555" lon="1.22025">
        <ele>128</ele>
        <time>2020-09-04T09:47:12+02:00</time>
      </trkpt>
      <trkpt lat="47.9856" lon="1.21991">
        <ele>128</ele>
        <time>2020-09-04T09:47:12+02:00</time>
      </trkpt>
      <trkpt lat="47.98577" lon="1.21967">
        <ele>128</ele>
        <time>2020-09-04T09:47:12+02:00</time>
      </trkpt>
      <trkpt lat="47.98594" lon="1.21943">
        <ele>128</ele>
        <time>2020-09-04T09:49:20+02:00</time>
      </trkpt>
      <trkpt lat="47.98616" lon="1.2193">
        <ele>128</ele>
        <time>2020-09-04T09:49:20+02:00</time>
      </trkpt>
      <trkpt lat="47.98634" lon="1.2193">
        <ele>127</ele>
        <time>2021-03-05T16:57:06+01:00</time>
      </trkpt>
      <trkpt lat="47.98616" lon="1.21897">
        <ele>128</ele>
        <time>2020-09-04T09:49:20+02:00</time>
      </trkpt>
      <trkpt lat="47.986" lon="1.21871">
        <ele>129</ele>
        <time>2020-09-04T09:49:20+02:00</time>
      </trkpt>
      <trkpt lat="47.98585" lon="1.21846">
        <ele>130</ele>
        <time>2020-09-04T09:49:20+02:00</time>
      </trkpt>
      <trkpt lat="47.98567" lon="1.21823">
        <ele>131</ele>
        <time>2020-09-04T09:51:28+02:00</time>
      </trkpt>
      <trkpt lat="47.9855" lon="1.21801">
        <ele>132</ele>
        <time>2020-09-04T09:51:28+02:00</time>
      </trkpt>
      <trkpt lat="47.98533" lon="1.21777">
        <ele>132</ele>
        <time>2020-09-04T09:51:28+02:00</time>
      </trkpt>
      <trkpt lat="47.98518" lon="1.21751">
        <ele>133</ele>
        <time>2020-09-04T09:51:28+02:00</time>
      </trkpt>
      <trkpt lat="47.98503" lon="1.21725">
        <ele>134</ele>
        <time>2020-09-04T09:51:28+02:00</time>
      </trkpt>
      <trkpt lat="47.98493" lon="1.21695">
        <ele>134</ele>
        <time>2020-09-04T09:51:28+02:00</time>
      </trkpt>
      <trkpt lat="47.98488" lon="1.21662">
        <ele>134</ele>
        <time>2020-09-04T09:53:36+02:00</time>
      </trkpt>
      <trkpt lat="47.98482" lon="1.21628">
        <ele>134</ele>
        <time>2020-09-04T09:53:36+02:00</time>
      </trkpt>
      <trkpt lat="47.98477" lon="1.21595">
        <ele>133</ele>
        <time>2020-09-04T09:53:36+02:00</time>
      </trkpt>
      <trkpt lat="47.9847" lon="1.21563">
        <ele>133</ele>
        <time>2020-09-04T09:53:36+02:00</time>
      </trkpt>
      <trkpt lat="47.98465" lon="1.2153">
        <ele>132</ele>
        <time>2020-09-04T09:53:36+02:00</time>
      </trkpt>
      <trkpt lat="47.98459" lon="1.21496">
        <ele>131</ele>
        <time>2020-09-04T09:53:36+02:00</time>
      </trkpt>
      <trkpt lat="47.98452" lon="1.21463">
        <ele>132</ele>
        <time>2020-09-04T09:53:36+02:00</time>
      </trkpt>
      <trkpt lat="47.98452" lon="1.21441">
        <ele>132</ele>
        <time>2021-03-05T16:58:31+01:00</time>
      </trkpt>
      <trkpt lat="47.98457" lon="1.2143">
        <ele>132</ele>
        <time>2020-09-04T09:55:44+02:00</time>
      </trkpt>
      <trkpt lat="47.9848" lon="1.21424">
        <ele>131</ele>
        <time>2020-09-04T09:55:44+02:00</time>
      </trkpt>
      <trkpt lat="47.98501" lon="1.2141">
        <ele>131</ele>
        <time>2020-09-04T09:55:44+02:00</time>
      </trkpt>
      <trkpt lat="47.98522" lon="1.21395">
        <ele>129</ele>
        <time>2020-09-04T09:55:44+02:00</time>
      </trkpt>
      <trkpt lat="47.98543" lon="1.21381">
        <ele>126</ele>
        <time>2020-09-04T09:55:44+02:00</time>
      </trkpt>
      <trkpt lat="47.98563" lon="1.21364">
        <ele>123</ele>
        <time>2020-09-04T09:55:44+02:00</time>
      </trkpt>
      <trkpt lat="47.98573" lon="1.21333">
        <ele>121</ele>
        <time>2020-09-04T09:57:52+02:00</time>
      </trkpt>
      <trkpt lat="47.98591" lon="1.21313">
        <ele>117</ele>
        <time>2020-09-04T09:57:52+02:00</time>
      </trkpt>
      <trkpt lat="47.9861" lon="1.21291">
        <ele>113</ele>
        <time>2020-09-04T09:57:52+02:00</time>
      </trkpt>
      <trkpt lat="47.98631" lon="1.21278">
        <ele>110</ele>
        <time>2020-09-04T09:57:52+02:00</time>
      </trkpt>
      <trkpt lat="47.98652" lon="1.21266">
        <ele>108</ele>
        <time>2020-09-04T09:57:52+02:00</time>
      </trkpt>
      <trkpt lat="47.98673" lon="1.21253">
        <ele>106</ele>
        <time>2020-09-04T09:57:52+02:00</time>
      </trkpt>
      <trkpt lat="47.98696" lon="1.21245">
        <ele>106</ele>
        <time>2020-09-04T10:00:00+02:00</time>
      </trkpt>
      <trkpt lat="47.9871" lon="1.21243">
        <ele>106</ele>
        <time>2021-03-05T16:59:41+01:00</time>
      </trkpt>
      <trkpt lat="47.98712" lon="1.21222">
        <ele>106</ele>
        <time>2020-09-04T10:00:00+02:00</time>
      </trkpt>
      <trkpt lat="47.98714" lon="1.21204">
        <ele>106</ele>
        <time>2021-03-05T16:59:51+01:00</time>
      </trkpt>
      <trkpt lat="47.98722" lon="1.2119">
        <ele>106</ele>
        <time>2020-09-04T10:00:00+02:00</time>
      </trkpt>
      <trkpt lat="47.98743" lon="1.21177">
        <ele>106</ele>
        <time>2020-09-04T10:00:00+02:00</time>
      </trkpt>
      <trkpt lat="47.98764" lon="1.21164">
        <ele>107</ele>
        <time>2020-09-04T10:02:08+02:00</time>
      </trkpt>
      <trkpt lat="47.98791" lon="1.21158">
        <ele>109</ele>
        <time>2020-09-04T10:02:08+02:00</time>
      </trkpt>
      <trkpt lat="47.98785" lon="1.21129">
        <ele>110</ele>
        <time>2021-03-05T17:00:16+01:00</time>
      </trkpt>
      <trkpt lat="47.98791" lon="1.2112">
        <ele>111</ele>
        <time>2020-09-04T10:02:08+02:00</time>
      </trkpt>
      <trkpt lat="47.9881" lon="1.21101">
        <ele>113</ele>
        <time>2020-09-04T10:02:08+02:00</time>
      </trkpt>
      <trkpt lat="47.98828" lon="1.21081">
        <ele>116</ele>
        <time>2020-09-04T10:02:08+02:00</time>
      </trkpt>
      <trkpt lat="47.98841" lon="1.21053">
        <ele>117</ele>
        <time>2020-09-04T10:04:16+02:00</time>
      </trkpt>
      <trkpt lat="47.98855" lon="1.21021">
        <ele>119</ele>
        <time>2020-09-04T10:04:16+02:00</time>
      </trkpt>
      <trkpt lat="47.98867" lon="1.20992">
        <ele>120</ele>
        <time>2020-09-04T10:04:16+02:00</time>
      </trkpt>
      <trkpt lat="47.98886" lon="1.20968">
        <ele>121</ele>
        <time>2020-09-04T10:04:16+02:00</time>
      </trkpt>
      <trkpt lat="47.98903" lon="1.20948">
        <ele>123</ele>
        <time>2020-09-04T10:04:16+02:00</time>
      </trkpt>
      <trkpt lat="47.98924" lon="1.20929">
        <ele>124</ele>
        <time>2020-09-04T10:04:16+02:00</time>
      </trkpt>
      <trkpt lat="47.98941" lon="1.20912">
        <ele>125</ele>
        <time>2020-09-04T10:08:32+02:00</time>
      </trkpt>
      <trkpt lat="47.98961" lon="1.20898">
        <ele>125</ele>
        <time>2020-09-04T10:08:32+02:00</time>
      </trkpt>
      <trkpt lat="47.98983" lon="1.20888">
        <ele>125</ele>
        <time>2020-09-04T10:08:32+02:00</time>
      </trkpt>
      <trkpt lat="47.99003" lon="1.20871">
        <ele>127</ele>
        <time>2020-09-04T10:08:32+02:00</time>
      </trkpt>
      <trkpt lat="47.99023" lon="1.20856">
        <ele>127</ele>
        <time>2020-09-04T10:08:32+02:00</time>
      </trkpt>
      <trkpt lat="47.99037" lon="1.20848">
        <ele>127</ele>
        <time>2021-03-05T17:01:31+01:00</time>
      </trkpt>
      <trkpt lat="47.99049" lon="1.20839">
        <ele>127</ele>
        <time>2020-09-04T10:10:40+02:00</time>
      </trkpt>
      <trkpt lat="47.99063" lon="1.20816">
        <ele>128</ele>
        <time>2020-09-04T10:10:40+02:00</time>
      </trkpt>
      <trkpt lat="47.99076" lon="1.20788">
        <ele>130</ele>
        <time>2020-09-04T10:10:40+02:00</time>
      </trkpt>
      <trkpt lat="47.99081" lon="1.20753">
        <ele>132</ele>
        <time>2020-09-04T10:10:40+02:00</time>
      </trkpt>
      <trkpt lat="47.99085" lon="1.20723">
        <ele>132</ele>
        <time>2020-09-04T10:10:40+02:00</time>
      </trkpt>
      <trkpt lat="47.99083" lon="1.20691">
        <ele>133</ele>
        <time>2020-09-04T10:10:40+02:00</time>
      </trkpt>
      <trkpt lat="47.99082" lon="1.20655">
        <ele>133</ele>
        <time>2020-09-04T10:12:48+02:00</time>
      </trkpt>
      <trkpt lat="47.99083" lon="1.20632">
        <ele>133</ele>
        <time>2020-09-04T10:12:48+02:00</time>
      </trkpt>
      <trkpt lat="47.99086" lon="1.20612">
        <ele>134</ele>
        <time>2020-09-04T10:21:20+02:00</time>
      </trkpt>
      <trkpt lat="47.99089" lon="1.20599">
        <ele>134</ele>
        <time>2020-09-04T10:21:20+02:00</time>
      </trkpt>
      <trkpt lat="47.99094" lon="1.20566">
        <ele>134</ele>
        <time>2020-09-04T10:25:36+02:00</time>
      </trkpt>
      <trkpt lat="47.99097" lon="1.20532">
        <ele>134</ele>
        <time>2020-09-04T10:27:44+02:00</time>
      </trkpt>
      <trkpt lat="47.99103" lon="1.20498">
        <ele>134</ele>
        <time>2020-09-04T10:27:44+02:00</time>
      </trkpt>
      <trkpt lat="47.99111" lon="1.20466">
        <ele>135</ele>
        <time>2020-09-04T10:27:44+02:00</time>
      </trkpt>
      <trkpt lat="47.99114" lon="1.20431">
        <ele>136</ele>
        <time>2020-09-04T10:27:44+02:00</time>
      </trkpt>
      <trkpt lat="47.99116" lon="1.20397">
        <ele>137</ele>
        <time>2020-09-04T10:29:52+02:00</time>
      </trkpt>
      <trkpt lat="47.99121" lon="1.20363">
        <ele>138</ele>
        <time>2020-09-04T10:29:52+02:00</time>
      </trkpt>
      <trkpt lat="47.99126" lon="1.20329">
        <ele>139</ele>
        <time>2020-09-04T10:29:52+02:00</time>
      </trkpt>
      <trkpt lat="47.99133" lon="1.20296">
        <ele>139</ele>
        <time>2020-09-04T10:29:52+02:00</time>
      </trkpt>
      <trkpt lat="47.99136" lon="1.20262">
        <ele>139</ele>
        <time>2020-09-04T10:29:52+02:00</time>
      </trkpt>
      <trkpt lat="47.99142" lon="1.20228">
        <ele>140</ele>
        <time>2020-09-04T10:29:52+02:00</time>
      </trkpt>
      <trkpt lat="47.99149" lon="1.20195">
        <ele>140</ele>
        <time>2020-09-04T10:29:52+02:00</time>
      </trkpt>
      <trkpt lat="47.9916" lon="1.20165">
        <ele>141</ele>
        <time>2020-09-04T10:32:00+02:00</time>
      </trkpt>
      <trkpt lat="47.99174" lon="1.20138">
        <ele>141</ele>
        <time>2020-09-04T10:32:00+02:00</time>
      </trkpt>
      <trkpt lat="47.99191" lon="1.20116">
        <ele>141</ele>
        <time>2020-09-04T10:32:00+02:00</time>
      </trkpt>
      <trkpt lat="47.99208" lon="1.20093">
        <ele>141</ele>
        <time>2020-09-04T10:32:00+02:00</time>
      </trkpt>
      <trkpt lat="47.99225" lon="1.2007">
        <ele>141</ele>
        <time>2020-09-04T10:32:00+02:00</time>
      </trkpt>
      <trkpt lat="47.99243" lon="1.20049">
        <ele>140</ele>
        <time>2020-09-04T10:34:08+02:00</time>
      </trkpt>
      <trkpt lat="47.99259" lon="1.20025">
        <ele>140</ele>
        <time>2020-09-04T10:34:08+02:00</time>
      </trkpt>
      <trkpt lat="47.99277" lon="1.20002">
        <ele>140</ele>
        <time>2020-09-04T10:34:08+02:00</time>
      </trkpt>
      <trkpt lat="47.99294" lon="1.19979">
        <ele>141</ele>
        <time>2020-09-04T10:34:08+02:00</time>
      </trkpt>
      <trkpt lat="47.99311" lon="1.19957">
        <ele>141</ele>
        <time>2020-09-04T10:34:08+02:00</time>
      </trkpt>
      <trkpt lat="47.99334" lon="1.19951">
        <ele>141</ele>
        <time>2020-09-04T10:34:08+02:00</time>
      </trkpt>
      <trkpt lat="47.99347" lon="1.19942">
        <ele>141</ele>
        <time>2021-03-05T17:04:21+01:00</time>
      </trkpt>
      <trkpt lat="47.9935" lon="1.19926">
        <ele>140</ele>
        <time>2020-09-04T10:34:08+02:00</time>
      </trkpt>
      <trkpt lat="47.99349" lon="1.19891">
        <ele>140</ele>
        <time>2020-09-04T10:36:16+02:00</time>
      </trkpt>
      <trkpt lat="47.99347" lon="1.19857">
        <ele>141</ele>
        <time>2020-09-04T10:36:16+02:00</time>
      </trkpt>
      <trkpt lat="47.99341" lon="1.19823">
        <ele>141</ele>
        <time>2020-09-04T10:36:16+02:00</time>
      </trkpt>
      <trkpt lat="47.99337" lon="1.19789">
        <ele>140</ele>
        <time>2020-09-04T10:36:16+02:00</time>
      </trkpt>
      <trkpt lat="47.99333" lon="1.19756">
        <ele>140</ele>
        <time>2020-09-04T10:36:16+02:00</time>
      </trkpt>
      <trkpt lat="47.99327" lon="1.19723">
        <ele>140</ele>
        <time>2020-09-04T10:36:16+02:00</time>
      </trkpt>
      <trkpt lat="47.9932" lon="1.19691">
        <ele>140</ele>
        <time>2020-09-04T10:38:24+02:00</time>
      </trkpt>
      <trkpt lat="47.99309" lon="1.1966">
        <ele>141</ele>
        <time>2020-09-04T10:38:24+02:00</time>
      </trkpt>
      <trkpt lat="47.99298" lon="1.1963">
        <ele>142</ele>
        <time>2020-09-04T10:38:24+02:00</time>
      </trkpt>
      <trkpt lat="47.99285" lon="1.19601">
        <ele>142</ele>
        <time>2020-09-04T10:38:24+02:00</time>
      </trkpt>
      <trkpt lat="47.99272" lon="1.19573">
        <ele>143</ele>
        <time>2020-09-04T10:38:24+02:00</time>
      </trkpt>
      <trkpt lat="47.99261" lon="1.19542">
        <ele>143</ele>
        <time>2020-09-04T10:38:24+02:00</time>
      </trkpt>
      <trkpt lat="47.99253" lon="1.1951">
        <ele>144</ele>
        <time>2020-09-04T10:40:32+02:00</time>
      </trkpt>
      <trkpt lat="47.9924" lon="1.19481">
        <ele>144</ele>
        <time>2020-09-04T10:40:32+02:00</time>
      </trkpt>
      <trkpt lat="47.99227" lon="1.19452">
        <ele>145</ele>
        <time>2020-09-04T10:40:32+02:00</time>
      </trkpt>
      <trkpt lat="47.99217" lon="1.19423">
        <ele>145</ele>
        <time>2020-09-04T10:40:32+02:00</time>
      </trkpt>
      <trkpt lat="47.99209" lon="1.19391">
        <ele>145</ele>
        <time>2020-09-04T10:40:32+02:00</time>
      </trkpt>
      <trkpt lat="47.99196" lon="1.19363">
        <ele>145</ele>
        <time>2020-09-04T10:40:32+02:00</time>
      </trkpt>
      <trkpt lat="47.99191" lon="1.19331">
        <ele>145</ele>
        <time>2020-09-04T10:40:32+02:00</time>
      </trkpt>
      <trkpt lat="47.99183" lon="1.19299">
        <ele>145</ele>
        <time>2020-09-04T10:42:40+02:00</time>
      </trkpt>
      <trkpt lat="47.99174" lon="1.19267">
        <ele>146</ele>
        <time>2020-09-04T10:42:40+02:00</time>
      </trkpt>
      <trkpt lat="47.99167" lon="1.19234">
        <ele>146</ele>
        <time>2020-09-04T10:42:40+02:00</time>
      </trkpt>
      <trkpt lat="47.99161" lon="1.19201">
        <ele>145</ele>
        <time>2020-09-04T10:42:40+02:00</time>
      </trkpt>
      <trkpt lat="47.99154" lon="1.1917">
        <ele>145</ele>
        <time>2020-09-04T10:42:40+02:00</time>
      </trkpt>
      <trkpt lat="47.99144" lon="1.19139">
        <ele>145</ele>
        <time>2020-09-04T10:42:40+02:00</time>
      </trkpt>
      <trkpt lat="47.99138" lon="1.19106">
        <ele>145</ele>
        <time>2020-09-04T10:44:48+02:00</time>
      </trkpt>
      <trkpt lat="47.99132" lon="1.19073">
        <ele>145</ele>
        <time>2020-09-04T10:44:48+02:00</time>
      </trkpt>
      <trkpt lat="47.99126" lon="1.1904">
        <ele>145</ele>
        <time>2020-09-04T10:44:48+02:00</time>
      </trkpt>
      <trkpt lat="47.99119" lon="1.19008">
        <ele>144</ele>
        <time>2020-09-04T10:44:48+02:00</time>
      </trkpt>
      <trkpt lat="47.99112" lon="1.18975">
        <ele>144</ele>
        <time>2020-09-04T10:44:48+02:00</time>
      </trkpt>
      <trkpt lat="47.99113" lon="1.18942">
        <ele>144</ele>
        <time>2020-09-04T10:44:48+02:00</time>
      </trkpt>
      <trkpt lat="47.99112" lon="1.18907">
        <ele>144</ele>
        <time>2020-09-04T10:46:56+02:00</time>
      </trkpt>
      <trkpt lat="47.9911" lon="1.18873">
        <ele>145</ele>
        <time>2020-09-04T10:46:56+02:00</time>
      </trkpt>
      <trkpt lat="47.99109" lon="1.18839">
        <ele>145</ele>
        <time>2020-09-04T10:46:56+02:00</time>
      </trkpt>
      <trkpt lat="47.99111" lon="1.18805">
        <ele>145</ele>
        <time>2020-09-04T10:46:56+02:00</time>
      </trkpt>
      <trkpt lat="47.99118" lon="1.18773">
        <ele>145</ele>
        <time>2020-09-04T10:46:56+02:00</time>
      </trkpt>
      <trkpt lat="47.99126" lon="1.1874">
        <ele>145</ele>
        <time>2020-09-04T10:46:56+02:00</time>
      </trkpt>
      <trkpt lat="47.99135" lon="1.18709">
        <ele>145</ele>
        <time>2020-09-04T10:49:04+02:00</time>
      </trkpt>
      <trkpt lat="47.99143" lon="1.18678">
        <ele>145</ele>
        <time>2020-09-04T10:49:04+02:00</time>
      </trkpt>
      <trkpt lat="47.99152" lon="1.18646">
        <ele>145</ele>
        <time>2020-09-04T10:49:04+02:00</time>
      </trkpt>
      <trkpt lat="47.99159" lon="1.18613">
        <ele>145</ele>
        <time>2020-09-04T10:49:04+02:00</time>
      </trkpt>
      <trkpt lat="47.99165" lon="1.18579">
        <ele>145</ele>
        <time>2020-09-04T10:49:04+02:00</time>
      </trkpt>
      <trkpt lat="47.99174" lon="1.18548">
        <ele>144</ele>
        <time>2020-09-04T10:49:04+02:00</time>
      </trkpt>
      <trkpt lat="47.99182" lon="1.18515">
        <ele>144</ele>
        <time>2020-09-04T10:51:12+02:00</time>
      </trkpt>
      <trkpt lat="47.99191" lon="1.18484">
        <ele>143</ele>
        <time>2020-09-04T10:51:12+02:00</time>
      </trkpt>
      <trkpt lat="47.992" lon="1.18452">
        <ele>143</ele>
        <time>2020-09-04T10:51:12+02:00</time>
      </trkpt>
      <trkpt lat="47.99202" lon="1.18448">
        <ele>143</ele>
        <time>2020-09-04T10:51:12+02:00</time>
      </trkpt>
      <trkpt lat="47.99204" lon="1.18441">
        <ele>143</ele>
        <time>2020-09-04T10:51:12+02:00</time>
      </trkpt>
      <trkpt lat="47.99207" lon="1.18432">
        <ele>143</ele>
        <time>2020-09-04T10:51:12+02:00</time>
      </trkpt>
      <trkpt lat="47.99207" lon="1.18427">
        <ele>143</ele>
        <time>2020-09-04T10:51:12+02:00</time>
      </trkpt>
      <trkpt lat="47.99209" lon="1.18419">
        <ele>143</ele>
        <time>2020-09-04T10:53:20+02:00</time>
      </trkpt>
      <trkpt lat="47.99212" lon="1.18415">
        <ele>143</ele>
        <time>2020-09-04T10:53:20+02:00</time>
      </trkpt>
      <trkpt lat="47.99213" lon="1.18406">
        <ele>143</ele>
        <time>2020-09-04T10:53:20+02:00</time>
      </trkpt>
      <trkpt lat="47.99214" lon="1.18398">
        <ele>143</ele>
        <time>2020-09-04T10:53:20+02:00</time>
      </trkpt>
      <trkpt lat="47.99217" lon="1.18389">
        <ele>144</ele>
        <time>2020-09-04T10:53:20+02:00</time>
      </trkpt>
      <trkpt lat="47.99218" lon="1.18385">
        <ele>144</ele>
        <time>2020-09-04T10:53:20+02:00</time>
      </trkpt>
      <trkpt lat="47.99222" lon="1.18375">
        <ele>144</ele>
        <time>2020-09-04T10:55:28+02:00</time>
      </trkpt>
      <trkpt lat="47.99226" lon="1.18366">
        <ele>144</ele>
        <time>2020-09-04T10:55:28+02:00</time>
      </trkpt>
      <trkpt lat="47.99227" lon="1.18364">
        <ele>144</ele>
        <time>2020-09-04T10:55:28+02:00</time>
      </trkpt>
      <trkpt lat="47.99228" lon="1.18362">
        <ele>144</ele>
        <time>2020-09-04T10:55:28+02:00</time>
      </trkpt>
      <trkpt lat="47.99229" lon="1.18358">
        <ele>144</ele>
        <time>2020-09-04T10:55:28+02:00</time>
      </trkpt>
      <trkpt lat="47.99231" lon="1.18359">
        <ele>144</ele>
        <time>2020-09-04T10:55:28+02:00</time>
      </trkpt>
      <trkpt lat="47.9923" lon="1.18348">
        <ele>144</ele>
        <time>2020-09-04T10:57:36+02:00</time>
      </trkpt>
      <trkpt lat="47.99235" lon="1.18349">
        <ele>144</ele>
        <time>2020-09-04T10:57:36+02:00</time>
      </trkpt>
      <trkpt lat="47.99239" lon="1.1835">
        <ele>145</ele>
        <time>2020-09-04T10:57:36+02:00</time>
      </trkpt>
      <trkpt lat="47.99263" lon="1.18351">
        <ele>145</ele>
        <time>2020-09-04T10:57:36+02:00</time>
      </trkpt>
      <trkpt lat="47.99286" lon="1.18353">
        <ele>145</ele>
        <time>2020-09-04T10:59:44+02:00</time>
      </trkpt>
      <trkpt lat="47.99309" lon="1.18355">
        <ele>145</ele>
        <time>2020-09-04T10:59:44+02:00</time>
      </trkpt>
      <trkpt lat="47.99333" lon="1.18357">
        <ele>145</ele>
        <time>2020-09-04T10:59:44+02:00</time>
      </trkpt>
      <trkpt lat="47.99356" lon="1.18359">
        <ele>145</ele>
        <time>2020-09-04T10:59:44+02:00</time>
      </trkpt>
      <trkpt lat="47.99379" lon="1.18362">
        <ele>145</ele>
        <time>2020-09-04T10:59:44+02:00</time>
      </trkpt>
      <trkpt lat="47.99402" lon="1.18364">
        <ele>146</ele>
        <time>2020-09-04T10:59:44+02:00</time>
      </trkpt>
      <trkpt lat="47.99424" lon="1.18367">
        <ele>146</ele>
        <time>2020-09-04T10:59:44+02:00</time>
      </trkpt>
      <trkpt lat="47.99447" lon="1.18369">
        <ele>146</ele>
        <time>2020-09-04T11:01:52+02:00</time>
      </trkpt>
      <trkpt lat="47.99471" lon="1.18371">
        <ele>145</ele>
        <time>2020-09-04T11:01:52+02:00</time>
      </trkpt>
      <trkpt lat="47.99494" lon="1.18374">
        <ele>145</ele>
        <time>2020-09-04T11:01:52+02:00</time>
      </trkpt>
      <trkpt lat="47.99517" lon="1.18376">
        <ele>145</ele>
        <time>2020-09-04T11:01:52+02:00</time>
      </trkpt>
      <trkpt lat="47.9954" lon="1.1838">
        <ele>146</ele>
        <time>2020-09-04T11:01:52+02:00</time>
      </trkpt>
      <trkpt lat="47.99563" lon="1.18383">
        <ele>146</ele>
        <time>2020-09-04T11:01:52+02:00</time>
      </trkpt>
      <trkpt lat="47.99586" lon="1.18383">
        <ele>147</ele>
        <time>2020-09-04T11:04:00+02:00</time>
      </trkpt>
      <trkpt lat="47.9961" lon="1.18385">
        <ele>147</ele>
        <time>2020-09-04T11:04:00+02:00</time>
      </trkpt>
      <trkpt lat="47.99635" lon="1.18385">
        <ele>148</ele>
        <time>2020-09-04T11:04:00+02:00</time>
      </trkpt>
      <trkpt lat="47.99658" lon="1.1838">
        <ele>149</ele>
        <time>2020-09-04T11:04:00+02:00</time>
      </trkpt>
      <trkpt lat="47.99677" lon="1.18373">
        <ele>149</ele>
        <time>2020-09-04T11:04:00+02:00</time>
      </trkpt>
      <trkpt lat="47.99701" lon="1.1838">
        <ele>148</ele>
        <time>2020-09-04T11:04:00+02:00</time>
      </trkpt>
      <trkpt lat="47.99718" lon="1.18342">
        <ele>149</ele>
        <time>2020-09-04T11:06:08+02:00</time>
      </trkpt>
      <trkpt lat="47.99729" lon="1.18313">
        <ele>149</ele>
        <time>2020-09-04T11:06:08+02:00</time>
      </trkpt>
      <trkpt lat="47.99745" lon="1.18295">
        <ele>149</ele>
        <time>2020-09-04T11:06:08+02:00</time>
      </trkpt>
      <trkpt lat="47.99769" lon="1.18302">
        <ele>148</ele>
        <time>2020-09-04T11:08:16+02:00</time>
      </trkpt>
      <trkpt lat="47.998" lon="1.18302">
        <ele>148</ele>
        <time>2020-09-04T11:08:16+02:00</time>
      </trkpt>
      <trkpt lat="47.99795" lon="1.18358">
        <ele>148</ele>
        <time>2020-09-04T11:08:16+02:00</time>
      </trkpt>
      <trkpt lat="47.99793" lon="1.18394">
        <ele>148</ele>
        <time>2020-09-04T11:08:16+02:00</time>
      </trkpt>
      <trkpt lat="47.99789" lon="1.18432">
        <ele>147</ele>
        <time>2020-09-04T11:08:16+02:00</time>
      </trkpt>
      <trkpt lat="47.99789" lon="1.18462">
        <ele>147</ele>
        <time>2020-09-04T11:10:24+02:00</time>
      </trkpt>
      <trkpt lat="47.99796" lon="1.18481">
        <ele>147</ele>
        <time>2020-09-04T11:10:24+02:00</time>
      </trkpt>
      <trkpt lat="47.99806" lon="1.18511">
        <ele>146</ele>
        <time>2020-09-04T11:10:24+02:00</time>
      </trkpt>
      <trkpt lat="47.99819" lon="1.18535">
        <ele>146</ele>
        <time>2020-09-04T11:10:24+02:00</time>
      </trkpt>
      <trkpt lat="47.99835" lon="1.18565">
        <ele>145</ele>
        <time>2020-09-04T11:10:24+02:00</time>
      </trkpt>
      <trkpt lat="47.99842" lon="1.1858">
        <ele>145</ele>
        <time>2021-03-05T17:12:41+01:00</time>
      </trkpt>
      <trkpt lat="47.99854" lon="1.18565">
        <ele>146</ele>
        <time>2020-09-04T11:10:24+02:00</time>
      </trkpt>
      <trkpt lat="47.99873" lon="1.18543">
        <ele>146</ele>
        <time>2020-09-04T11:10:24+02:00</time>
      </trkpt>
      <trkpt lat="47.9989" lon="1.18518">
        <ele>147</ele>
        <time>2020-09-04T11:12:32+02:00</time>
      </trkpt>
      <trkpt lat="47.99901" lon="1.18488">
        <ele>147</ele>
        <time>2020-09-04T11:12:32+02:00</time>
      </trkpt>
      <trkpt lat="47.99908" lon="1.18462">
        <ele>147</ele>
        <time>2020-09-04T11:12:32+02:00</time>
      </trkpt>
      <trkpt lat="47.99921" lon="1.18428">
        <ele>147</ele>
        <time>2020-09-04T11:12:32+02:00</time>
      </trkpt>
      <trkpt lat="47.99934" lon="1.184">
        <ele>146</ele>
        <time>2020-09-04T11:12:32+02:00</time>
      </trkpt>
      <trkpt lat="47.99958" lon="1.18396">
        <ele>146</ele>
        <time>2020-09-04T11:12:32+02:00</time>
      </trkpt>
      <trkpt lat="47.99982" lon="1.18395">
        <ele>146</ele>
        <time>2020-09-04T11:12:32+02:00</time>
      </trkpt>
      <trkpt lat="48.00004" lon="1.18385">
        <ele>145</ele>
        <time>2020-09-04T11:14:40+02:00</time>
      </trkpt>
      <trkpt lat="48.00027" lon="1.1838">
        <ele>146</ele>
        <time>2020-09-04T11:14:40+02:00</time>
      </trkpt>
      <trkpt lat="48.00036" lon="1.1838">
        <ele>146</ele>
        <time>2021-03-05T17:13:41+01:00</time>
      </trkpt>
      <trkpt lat="48.00033" lon="1.18407">
        <ele>146</ele>
        <time>2020-09-04T11:14:40+02:00</time>
      </trkpt>
      <trkpt lat="48.00023" lon="1.18438">
        <ele>146</ele>
        <time>2020-09-04T11:14:40+02:00</time>
      </trkpt>
      <trkpt lat="48.00011" lon="1.18466">
        <ele>145</ele>
        <time>2020-09-04T11:14:40+02:00</time>
      </trkpt>
      <trkpt lat="48.00002" lon="1.18491">
        <ele>145</ele>
        <time>2020-09-04T11:14:40+02:00</time>
      </trkpt>
      <trkpt lat="48.00005" lon="1.18529">
        <ele>145</ele>
        <time>2020-09-04T11:16:48+02:00</time>
      </trkpt>
      <trkpt lat="48.00007" lon="1.18563">
        <ele>145</ele>
        <time>2020-09-04T11:16:48+02:00</time>
      </trkpt>
      <trkpt lat="48.0001" lon="1.18597">
        <ele>146</ele>
        <time>2020-09-04T11:16:48+02:00</time>
      </trkpt>
      <trkpt lat="48.00015" lon="1.1863">
        <ele>146</ele>
        <time>2020-09-04T11:16:48+02:00</time>
      </trkpt>
      <trkpt lat="48.00016" lon="1.18675">
        <ele>147</ele>
        <time>2020-09-04T11:16:48+02:00</time>
      </trkpt>
      <trkpt lat="48.0002" lon="1.18705">
        <ele>148</ele>
        <time>2020-09-04T11:16:48+02:00</time>
      </trkpt>
      <trkpt lat="48.00022" lon="1.18735">
        <ele>149</ele>
        <time>2020-09-04T11:16:48+02:00</time>
      </trkpt>
      <trkpt lat="48.00023" lon="1.18771">
        <ele>151</ele>
        <time>2020-09-04T11:18:56+02:00</time>
      </trkpt>
      <trkpt lat="48.00023" lon="1.18806">
        <ele>152</ele>
        <time>2020-09-04T11:18:56+02:00</time>
      </trkpt>
      <trkpt lat="48.00021" lon="1.18839">
        <ele>153</ele>
        <time>2020-09-04T11:18:56+02:00</time>
      </trkpt>
      <trkpt lat="48.00018" lon="1.18873">
        <ele>153</ele>
        <time>2020-09-04T11:18:56+02:00</time>
      </trkpt>
      <trkpt lat="48.00014" lon="1.18909">
        <ele>153</ele>
        <time>2020-09-04T11:18:56+02:00</time>
      </trkpt>
      <trkpt lat="48.00011" lon="1.18944">
        <ele>153</ele>
        <time>2020-09-04T11:21:04+02:00</time>
      </trkpt>
      <trkpt lat="48.00009" lon="1.18978">
        <ele>152</ele>
        <time>2020-09-04T11:21:04+02:00</time>
      </trkpt>
      <trkpt lat="48.00008" lon="1.19012">
        <ele>152</ele>
        <time>2020-09-04T11:21:04+02:00</time>
      </trkpt>
      <trkpt lat="48.00007" lon="1.19044">
        <ele>152</ele>
        <time>2020-09-04T11:21:04+02:00</time>
      </trkpt>
      <trkpt lat="48.00011" lon="1.19078">
        <ele>151</ele>
        <time>2020-09-04T11:21:04+02:00</time>
      </trkpt>
      <trkpt lat="48.00013" lon="1.19112">
        <ele>150</ele>
        <time>2020-09-04T11:21:04+02:00</time>
      </trkpt>
      <trkpt lat="48.00014" lon="1.19138">
        <ele>150</ele>
        <time>2020-09-04T11:21:04+02:00</time>
      </trkpt>
      <trkpt lat="48.00021" lon="1.19179">
        <ele>149</ele>
        <time>2020-09-04T11:23:12+02:00</time>
      </trkpt>
      <trkpt lat="48.00025" lon="1.19209">
        <ele>150</ele>
        <time>2020-09-04T11:23:12+02:00</time>
      </trkpt>
      <trkpt lat="48.00031" lon="1.19244">
        <ele>150</ele>
        <time>2020-09-04T11:23:12+02:00</time>
      </trkpt>
      <trkpt lat="48.00037" lon="1.1927">
        <ele>150</ele>
        <time>2020-09-04T11:23:12+02:00</time>
      </trkpt>
      <trkpt lat="48.00045" lon="1.19303">
        <ele>150</ele>
        <time>2020-09-04T11:23:12+02:00</time>
      </trkpt>
      <trkpt lat="48.00052" lon="1.19334">
        <ele>150</ele>
        <time>2020-09-04T11:23:12+02:00</time>
      </trkpt>
      <trkpt lat="48.00062" lon="1.1936">
        <ele>150</ele>
        <time>2020-09-04T11:25:20+02:00</time>
      </trkpt>
      <trkpt lat="48.00075" lon="1.19396">
        <ele>151</ele>
        <time>2020-09-04T11:25:20+02:00</time>
      </trkpt>
      <trkpt lat="48.00086" lon="1.19425">
        <ele>151</ele>
        <time>2020-09-04T11:25:20+02:00</time>
      </trkpt>
      <trkpt lat="48.00095" lon="1.19455">
        <ele>151</ele>
        <time>2020-09-04T11:25:20+02:00</time>
      </trkpt>
      <trkpt lat="48.00107" lon="1.19483">
        <ele>151</ele>
        <time>2020-09-04T11:25:20+02:00</time>
      </trkpt>
      <trkpt lat="48.00117" lon="1.19509">
        <ele>151</ele>
        <time>2020-09-04T11:25:20+02:00</time>
      </trkpt>
      <trkpt lat="48.00134" lon="1.1953">
        <ele>151</ele>
        <time>2020-09-04T11:25:20+02:00</time>
      </trkpt>
      <trkpt lat="48.00151" lon="1.19561">
        <ele>150</ele>
        <time>2020-09-04T11:27:28+02:00</time>
      </trkpt>
      <trkpt lat="48.00166" lon="1.19588">
        <ele>150</ele>
        <time>2020-09-04T11:27:28+02:00</time>
      </trkpt>
      <trkpt lat="48.0018" lon="1.19606">
        <ele>149</ele>
        <time>2020-09-04T11:27:28+02:00</time>
      </trkpt>
      <trkpt lat="48.00193" lon="1.19641">
        <ele>148</ele>
        <time>2020-09-04T11:27:28+02:00</time>
      </trkpt>
      <trkpt lat="48.002" lon="1.19669">
        <ele>147</ele>
        <time>2020-09-04T11:27:28+02:00</time>
      </trkpt>
      <trkpt lat="48.0021" lon="1.19722">
        <ele>145</ele>
        <time>2020-09-04T11:27:28+02:00</time>
      </trkpt>
      <trkpt lat="48.00221" lon="1.19696">
        <ele>144</ele>
        <time>2020-09-04T11:29:36+02:00</time>
      </trkpt>
      <trkpt lat="48.00239" lon="1.19665">
        <ele>143</ele>
        <time>2020-09-04T11:31:44+02:00</time>
      </trkpt>
      <trkpt lat="48.0025" lon="1.19637">
        <ele>143</ele>
        <time>2020-09-04T11:31:44+02:00</time>
      </trkpt>
      <trkpt lat="48.00262" lon="1.19605">
        <ele>143</ele>
        <time>2020-09-04T11:31:44+02:00</time>
      </trkpt>
      <trkpt lat="48.00271" lon="1.19573">
        <ele>143</ele>
        <time>2020-09-04T11:31:44+02:00</time>
      </trkpt>
      <trkpt lat="48.00278" lon="1.19539">
        <ele>142</ele>
        <time>2020-09-04T11:31:44+02:00</time>
      </trkpt>
      <trkpt lat="48.00282" lon="1.19508">
        <ele>142</ele>
        <time>2020-09-04T11:31:44+02:00</time>
      </trkpt>
      <trkpt lat="48.00287" lon="1.19475">
        <ele>142</ele>
        <time>2020-09-04T11:33:52+02:00</time>
      </trkpt>
      <trkpt lat="48.0029" lon="1.19441">
        <ele>142</ele>
        <time>2020-09-04T11:33:52+02:00</time>
      </trkpt>
      <trkpt lat="48.0029" lon="1.19406">
        <ele>142</ele>
        <time>2020-09-04T11:33:52+02:00</time>
      </trkpt>
      <trkpt lat="48.00293" lon="1.19372">
        <ele>143</ele>
        <time>2020-09-04T11:33:52+02:00</time>
      </trkpt>
      <trkpt lat="48.00296" lon="1.19338">
        <ele>143</ele>
        <time>2020-09-04T11:33:52+02:00</time>
      </trkpt>
      <trkpt lat="48.00298" lon="1.19304">
        <ele>142</ele>
        <time>2020-09-04T11:33:52+02:00</time>
      </trkpt>
      <trkpt lat="48.00301" lon="1.19269">
        <ele>142</ele>
        <time>2020-09-04T11:38:08+02:00</time>
      </trkpt>
      <trkpt lat="48.00303" lon="1.19235">
        <ele>142</ele>
        <time>2020-09-04T11:38:08+02:00</time>
      </trkpt>
      <trkpt lat="48.00304" lon="1.19201">
        <ele>142</ele>
        <time>2020-09-04T11:38:08+02:00</time>
      </trkpt>
      <trkpt lat="48.00303" lon="1.19166">
        <ele>142</ele>
        <time>2020-09-04T11:38:08+02:00</time>
      </trkpt>
      <trkpt lat="48.00314" lon="1.19136">
        <ele>142</ele>
        <time>2020-09-04T11:38:08+02:00</time>
      </trkpt>
      <trkpt lat="48.00336" lon="1.19124">
        <ele>142</ele>
        <time>2020-09-04T11:38:08+02:00</time>
      </trkpt>
      <trkpt lat="48.00358" lon="1.19119">
        <ele>143</ele>
        <time>2020-09-04T11:38:08+02:00</time>
      </trkpt>
      <trkpt lat="48.0038" lon="1.19111">
        <ele>143</ele>
        <time>2020-09-04T11:40:16+02:00</time>
      </trkpt>
      <trkpt lat="48.00403" lon="1.19106">
        <ele>144</ele>
        <time>2020-09-04T11:40:16+02:00</time>
      </trkpt>
      <trkpt lat="48.00427" lon="1.19108">
        <ele>145</ele>
        <time>2020-09-04T11:40:16+02:00</time>
      </trkpt>
      <trkpt lat="48.0045" lon="1.19113">
        <ele>145</ele>
        <time>2020-09-04T11:40:16+02:00</time>
      </trkpt>
      <trkpt lat="48.00473" lon="1.19119">
        <ele>145</ele>
        <time>2020-09-04T11:40:16+02:00</time>
      </trkpt>
      <trkpt lat="48.00495" lon="1.19129">
        <ele>146</ele>
        <time>2020-09-04T11:40:16+02:00</time>
      </trkpt>
      <trkpt lat="48.00517" lon="1.19136">
        <ele>147</ele>
        <time>2020-09-04T11:42:24+02:00</time>
      </trkpt>
      <trkpt lat="48.0054" lon="1.1914">
        <ele>147</ele>
        <time>2020-09-04T11:42:24+02:00</time>
      </trkpt>
      <trkpt lat="48.00562" lon="1.19144">
        <ele>148</ele>
        <time>2020-09-04T11:42:24+02:00</time>
      </trkpt>
      <trkpt lat="48.00586" lon="1.1915">
        <ele>149</ele>
        <time>2020-09-04T11:42:24+02:00</time>
      </trkpt>
      <trkpt lat="48.00608" lon="1.1915">
        <ele>150</ele>
        <time>2020-09-04T11:42:24+02:00</time>
      </trkpt>
      <trkpt lat="48.00632" lon="1.19152">
        <ele>151</ele>
        <time>2020-09-04T11:42:24+02:00</time>
      </trkpt>
      <trkpt lat="48.00644" lon="1.19154">
        <ele>152</ele>
        <time>2021-03-05T17:19:56+01:00</time>
      </trkpt>
      <trkpt lat="48.00655" lon="1.19153">
        <ele>152</ele>
        <time>2020-09-04T11:42:24+02:00</time>
      </trkpt>
      <trkpt lat="48.00668" lon="1.19117">
        <ele>152</ele>
        <time>2020-09-04T11:44:32+02:00</time>
      </trkpt>
      <trkpt lat="48.00687" lon="1.191">
        <ele>151</ele>
        <time>2020-09-04T11:44:32+02:00</time>
      </trkpt>
      <trkpt lat="48.00708" lon="1.19084">
        <ele>151</ele>
        <time>2020-09-04T11:44:32+02:00</time>
      </trkpt>
      <trkpt lat="48.00728" lon="1.19068">
        <ele>150</ele>
        <time>2020-09-04T11:44:32+02:00</time>
      </trkpt>
      <trkpt lat="48.00749" lon="1.19055">
        <ele>150</ele>
        <time>2020-09-04T11:44:32+02:00</time>
      </trkpt>
      <trkpt lat="48.00772" lon="1.19058">
        <ele>150</ele>
        <time>2020-09-04T11:46:40+02:00</time>
      </trkpt>
      <trkpt lat="48.00794" lon="1.19066">
        <ele>149</ele>
        <time>2020-09-04T11:46:40+02:00</time>
      </trkpt>
      <trkpt lat="48.0081" lon="1.19064">
        <ele>149</ele>
        <time>2021-03-05T17:20:41+01:00</time>
      </trkpt>
      <trkpt lat="48.00816" lon="1.19082">
        <ele>149</ele>
        <time>2020-09-04T11:46:40+02:00</time>
      </trkpt>
      <trkpt lat="48.00831" lon="1.19104">
        <ele>149</ele>
        <time>2020-09-04T11:46:40+02:00</time>
      </trkpt>
      <trkpt lat="48.00844" lon="1.19133">
        <ele>149</ele>
        <time>2020-09-04T11:46:40+02:00</time>
      </trkpt>
      <trkpt lat="48.00858" lon="1.1916">
        <ele>149</ele>
        <time>2020-09-04T11:48:48+02:00</time>
      </trkpt>
      <trkpt lat="48.00872" lon="1.19187">
        <ele>148</ele>
        <time>2020-09-04T11:48:48+02:00</time>
      </trkpt>
      <trkpt lat="48.00884" lon="1.19216">
        <ele>148</ele>
        <time>2020-09-04T11:48:48+02:00</time>
      </trkpt>
      <trkpt lat="48.00897" lon="1.19245">
        <ele>147</ele>
        <time>2020-09-04T11:48:48+02:00</time>
      </trkpt>
      <trkpt lat="48.00913" lon="1.19272">
        <ele>147</ele>
        <time>2020-09-04T11:48:48+02:00</time>
      </trkpt>
      <trkpt lat="48.0092" lon="1.19301">
        <ele>146</ele>
        <time>2020-09-04T11:48:48+02:00</time>
      </trkpt>
      <trkpt lat="48.00928" lon="1.19335">
        <ele>145</ele>
        <time>2020-09-04T11:48:48+02:00</time>
      </trkpt>
      <trkpt lat="48.00935" lon="1.19368">
        <ele>145</ele>
        <time>2020-09-04T11:50:56+02:00</time>
      </trkpt>
      <trkpt lat="48.0093" lon="1.19405">
        <ele>146</ele>
        <time>2020-09-04T11:50:56+02:00</time>
      </trkpt>
      <trkpt lat="48.00922" lon="1.19437">
        <ele>147</ele>
        <time>2020-09-04T11:50:56+02:00</time>
      </trkpt>
      <trkpt lat="48.00918" lon="1.19471">
        <ele>147</ele>
        <time>2020-09-04T11:50:56+02:00</time>
      </trkpt>
      <trkpt lat="48.00911" lon="1.19499">
        <ele>147</ele>
        <time>2020-09-04T11:50:56+02:00</time>
      </trkpt>
      <trkpt lat="48.00899" lon="1.19534">
        <ele>147</ele>
        <time>2020-09-04T12:37:52+02:00</time>
      </trkpt>
      <trkpt lat="48.00885" lon="1.1955">
        <ele>147</ele>
        <time>2020-09-04T12:37:52+02:00</time>
      </trkpt>
      <trkpt lat="48.00875" lon="1.19576">
        <ele>146</ele>
        <time>2020-09-04T12:37:52+02:00</time>
      </trkpt>
      <trkpt lat="48.00862" lon="1.196">
        <ele>144</ele>
        <time>2020-09-04T12:40:00+02:00</time>
      </trkpt>
      <trkpt lat="48.00847" lon="1.19623">
        <ele>142</ele>
        <time>2020-09-04T12:40:00+02:00</time>
      </trkpt>
      <trkpt lat="48.00829" lon="1.19643">
        <ele>140</ele>
        <time>2020-09-04T12:40:00+02:00</time>
      </trkpt>
      <trkpt lat="48.00807" lon="1.19655">
        <ele>139</ele>
        <time>2020-09-04T12:40:00+02:00</time>
      </trkpt>
      <trkpt lat="48.00787" lon="1.19671">
        <ele>138</ele>
        <time>2020-09-04T12:40:00+02:00</time>
      </trkpt>
      <trkpt lat="48.00766" lon="1.19686">
        <ele>137</ele>
        <time>2020-09-04T12:40:00+02:00</time>
      </trkpt>
      <trkpt lat="48.00746" lon="1.19701">
        <ele>137</ele>
        <time>2020-09-04T12:42:08+02:00</time>
      </trkpt>
      <trkpt lat="48.00748" lon="1.19735">
        <ele>136</ele>
        <time>2020-09-04T12:42:08+02:00</time>
      </trkpt>
      <trkpt lat="48.00757" lon="1.19766">
        <ele>137</ele>
        <time>2020-09-04T12:42:08+02:00</time>
      </trkpt>
      <trkpt lat="48.00766" lon="1.19797">
        <ele>138</ele>
        <time>2020-09-04T12:42:08+02:00</time>
      </trkpt>
      <trkpt lat="48.00777" lon="1.19827">
        <ele>139</ele>
        <time>2020-09-04T12:42:08+02:00</time>
      </trkpt>
      <trkpt lat="48.00783" lon="1.1986">
        <ele>139</ele>
        <time>2020-09-04T12:42:08+02:00</time>
      </trkpt>
      <trkpt lat="48.00784" lon="1.19893">
        <ele>139</ele>
        <time>2020-09-04T12:44:16+02:00</time>
      </trkpt>
      <trkpt lat="48.00782" lon="1.19929">
        <ele>138</ele>
        <time>2020-09-04T12:44:16+02:00</time>
      </trkpt>
      <trkpt lat="48.00783" lon="1.19961">
        <ele>136</ele>
        <time>2020-09-04T12:44:16+02:00</time>
      </trkpt>
      <trkpt lat="48.00783" lon="1.19998">
        <ele>133</ele>
        <time>2020-09-04T12:44:16+02:00</time>
      </trkpt>
      <trkpt lat="48.00785" lon="1.20031">
        <ele>131</ele>
        <time>2020-09-04T12:44:16+02:00</time>
      </trkpt>
      <trkpt lat="48.00779" lon="1.20066">
        <ele>130</ele>
        <time>2020-09-04T12:44:16+02:00</time>
      </trkpt>
      <trkpt lat="48.00774" lon="1.20095">
        <ele>130</ele>
        <time>2020-09-04T12:46:24+02:00</time>
      </trkpt>
      <trkpt lat="48.00774" lon="1.20128">
        <ele>131</ele>
        <time>2020-09-04T12:46:24+02:00</time>
      </trkpt>
      <trkpt lat="48.00769" lon="1.20162">
        <ele>133</ele>
        <time>2020-09-04T12:46:24+02:00</time>
      </trkpt>
      <trkpt lat="48.00756" lon="1.2019">
        <ele>134</ele>
        <time>2020-09-04T12:46:24+02:00</time>
      </trkpt>
      <trkpt lat="48.00738" lon="1.20213">
        <ele>135</ele>
        <time>2020-09-04T12:46:24+02:00</time>
      </trkpt>
      <trkpt lat="48.00722" lon="1.20238">
        <ele>136</ele>
        <time>2020-09-04T12:46:24+02:00</time>
      </trkpt>
      <trkpt lat="48.00709" lon="1.20267">
        <ele>137</ele>
        <time>2020-09-04T12:48:32+02:00</time>
      </trkpt>
      <trkpt lat="48.00694" lon="1.203">
        <ele>137</ele>
        <time>2020-09-04T12:48:32+02:00</time>
      </trkpt>
      <trkpt lat="48.00686" lon="1.20307">
        <ele>137</ele>
        <time>2021-03-05T17:24:26+01:00</time>
      </trkpt>
      <trkpt lat="48.00666" lon="1.20292">
        <ele>137</ele>
        <time>2020-09-04T12:48:32+02:00</time>
      </trkpt>
      <trkpt lat="48.00655" lon="1.20325">
        <ele>137</ele>
        <time>2020-09-04T12:48:32+02:00</time>
      </trkpt>
      <trkpt lat="48.00643" lon="1.20354">
        <ele>137</ele>
        <time>2020-09-04T12:48:32+02:00</time>
      </trkpt>
      <trkpt lat="48.00635" lon="1.20386">
        <ele>136</ele>
        <time>2020-09-04T12:50:40+02:00</time>
      </trkpt>
      <trkpt lat="48.00622" lon="1.20416">
        <ele>136</ele>
        <time>2020-09-04T12:50:40+02:00</time>
      </trkpt>
      <trkpt lat="48.00612" lon="1.20446">
        <ele>136</ele>
        <time>2020-09-04T12:50:40+02:00</time>
      </trkpt>
      <trkpt lat="48.00599" lon="1.20475">
        <ele>135</ele>
        <time>2020-09-04T12:50:40+02:00</time>
      </trkpt>
      <trkpt lat="48.00589" lon="1.20506">
        <ele>135</ele>
        <time>2020-09-04T12:50:40+02:00</time>
      </trkpt>
      <trkpt lat="48.00578" lon="1.20536">
        <ele>134</ele>
        <time>2020-09-04T12:50:40+02:00</time>
      </trkpt>
      <trkpt lat="48.00566" lon="1.20565">
        <ele>132</ele>
        <time>2020-09-04T12:50:40+02:00</time>
      </trkpt>
      <trkpt lat="48.00556" lon="1.20597">
        <ele>131</ele>
        <time>2020-09-04T12:52:48+02:00</time>
      </trkpt>
      <trkpt lat="48.00544" lon="1.20626">
        <ele>130</ele>
        <time>2020-09-04T12:52:48+02:00</time>
      </trkpt>
      <trkpt lat="48.00529" lon="1.20653">
        <ele>129</ele>
        <time>2020-09-04T12:52:48+02:00</time>
      </trkpt>
      <trkpt lat="48.00515" lon="1.2068">
        <ele>128</ele>
        <time>2020-09-04T12:52:48+02:00</time>
      </trkpt>
      <trkpt lat="48.00501" lon="1.20708">
        <ele>126</ele>
        <time>2020-09-04T12:52:48+02:00</time>
      </trkpt>
      <trkpt lat="48.0049" lon="1.20738">
        <ele>124</ele>
        <time>2020-09-04T12:52:48+02:00</time>
      </trkpt>
      <trkpt lat="48.0048" lon="1.2077">
        <ele>122</ele>
        <time>2020-09-04T12:54:56+02:00</time>
      </trkpt>
      <trkpt lat="48.00474" lon="1.20803">
        <ele>120</ele>
        <time>2020-09-04T12:54:56+02:00</time>
      </trkpt>
      <trkpt lat="48.00464" lon="1.20834">
        <ele>118</ele>
        <time>2020-09-04T12:54:56+02:00</time>
      </trkpt>
      <trkpt lat="48.00448" lon="1.20859">
        <ele>118</ele>
        <time>2020-09-04T12:54:56+02:00</time>
      </trkpt>
      <trkpt lat="48.00431" lon="1.20881">
        <ele>118</ele>
        <time>2020-09-04T12:54:56+02:00</time>
      </trkpt>
      <trkpt lat="48.00414" lon="1.20904">
        <ele>118</ele>
        <time>2020-09-04T12:54:56+02:00</time>
      </trkpt>
      <trkpt lat="48.00395" lon="1.20924">
        <ele>117</ele>
        <time>2020-09-04T12:54:56+02:00</time>
      </trkpt>
      <trkpt lat="48.00376" lon="1.20944">
        <ele>117</ele>
        <time>2020-09-04T12:57:04+02:00</time>
      </trkpt>
      <trkpt lat="48.00356" lon="1.20961">
        <ele>117</ele>
        <time>2020-09-04T12:57:04+02:00</time>
      </trkpt>
      <trkpt lat="48.00337" lon="1.2098">
        <ele>116</ele>
        <time>2020-09-04T12:57:04+02:00</time>
      </trkpt>
      <trkpt lat="48.00319" lon="1.21002">
        <ele>116</ele>
        <time>2020-09-04T12:57:04+02:00</time>
      </trkpt>
      <trkpt lat="48.00302" lon="1.21025">
        <ele>117</ele>
        <time>2020-09-04T12:57:04+02:00</time>
      </trkpt>
      <trkpt lat="48.0029" lon="1.21054">
        <ele>118</ele>
        <time>2020-09-04T12:57:04+02:00</time>
      </trkpt>
      <trkpt lat="48.00283" lon="1.21086">
        <ele>118</ele>
        <time>2020-09-04T12:59:12+02:00</time>
      </trkpt>
      <trkpt lat="48.00297" lon="1.21115">
        <ele>118</ele>
        <time>2020-09-04T12:59:12+02:00</time>
      </trkpt>
      <trkpt lat="48.00313" lon="1.2114">
        <ele>118</ele>
        <time>2020-09-04T12:59:12+02:00</time>
      </trkpt>
      <trkpt lat="48.00334" lon="1.21156">
        <ele>118</ele>
        <time>2020-09-04T12:59:12+02:00</time>
      </trkpt>
      <trkpt lat="48.00356" lon="1.21167">
        <ele>119</ele>
        <time>2020-09-04T12:59:12+02:00</time>
      </trkpt>
      <trkpt lat="48.00384" lon="1.21175">
        <ele>121</ele>
        <time>2020-09-04T13:01:20+02:00</time>
      </trkpt>
      <trkpt lat="48.00406" lon="1.21188">
        <ele>123</ele>
        <time>2020-09-04T13:01:20+02:00</time>
      </trkpt>
      <trkpt lat="48.00435" lon="1.21199">
        <ele>125</ele>
        <time>2020-09-04T13:01:20+02:00</time>
      </trkpt>
      <trkpt lat="48.00451" lon="1.21218">
        <ele>127</ele>
        <time>2020-09-04T13:01:20+02:00</time>
      </trkpt>
      <trkpt lat="48.0047" lon="1.2124">
        <ele>128</ele>
        <time>2020-09-04T13:01:20+02:00</time>
      </trkpt>
      <trkpt lat="48.0049" lon="1.21265">
        <ele>130</ele>
        <time>2020-09-04T13:01:20+02:00</time>
      </trkpt>
      <trkpt lat="48.00504" lon="1.21275">
        <ele>132</ele>
        <time>2020-09-04T13:03:28+02:00</time>
      </trkpt>
      <trkpt lat="48.00526" lon="1.21286">
        <ele>134</ele>
        <time>2020-09-04T13:03:28+02:00</time>
      </trkpt>
      <trkpt lat="48.00541" lon="1.21305">
        <ele>137</ele>
        <time>2020-09-04T13:03:28+02:00</time>
      </trkpt>
      <trkpt lat="48.00562" lon="1.2132">
        <ele>139</ele>
        <time>2020-09-04T13:03:28+02:00</time>
      </trkpt>
      <trkpt lat="48.00581" lon="1.21339">
        <ele>141</ele>
        <time>2020-09-04T13:03:28+02:00</time>
      </trkpt>
      <trkpt lat="48.00597" lon="1.21364">
        <ele>142</ele>
        <time>2020-09-04T13:05:36+02:00</time>
      </trkpt>
      <trkpt lat="48.00609" lon="1.21394">
        <ele>143</ele>
        <time>2020-09-04T13:05:36+02:00</time>
      </trkpt>
      <trkpt lat="48.00619" lon="1.21425">
        <ele>144</ele>
        <time>2020-09-04T13:05:36+02:00</time>
      </trkpt>
      <trkpt lat="48.00629" lon="1.21456">
        <ele>144</ele>
        <time>2020-09-04T13:05:36+02:00</time>
      </trkpt>
      <trkpt lat="48.00639" lon="1.21491">
        <ele>143</ele>
        <time>2020-09-04T13:05:36+02:00</time>
      </trkpt>
      <trkpt lat="48.00644" lon="1.2152">
        <ele>143</ele>
        <time>2020-09-04T13:05:36+02:00</time>
      </trkpt>
      <trkpt lat="48.00642" lon="1.21551">
        <ele>143</ele>
        <time>2020-09-04T13:09:52+02:00</time>
      </trkpt>
      <trkpt lat="48.00647" lon="1.21586">
        <ele>143</ele>
        <time>2020-09-04T13:09:52+02:00</time>
      </trkpt>
      <trkpt lat="48.00647" lon="1.21624">
        <ele>143</ele>
        <time>2020-09-04T13:09:52+02:00</time>
      </trkpt>
      <trkpt lat="48.00649" lon="1.21658">
        <ele>143</ele>
        <time>2020-09-04T13:09:52+02:00</time>
      </trkpt>
      <trkpt lat="48.00651" lon="1.21688">
        <ele>143</ele>
        <time>2020-09-04T13:09:52+02:00</time>
      </trkpt>
      <trkpt lat="48.00652" lon="1.21722">
        <ele>143</ele>
        <time>2020-09-04T13:09:52+02:00</time>
      </trkpt>
      <trkpt lat="48.00658" lon="1.2176">
        <ele>144</ele>
        <time>2020-09-04T13:09:52+02:00</time>
      </trkpt>
      <trkpt lat="48.00658" lon="1.21798">
        <ele>144</ele>
        <time>2020-09-04T13:12:00+02:00</time>
      </trkpt>
      <trkpt lat="48.00662" lon="1.21831">
        <ele>144</ele>
        <time>2020-09-04T13:12:00+02:00</time>
      </trkpt>
      <trkpt lat="48.00666" lon="1.21859">
        <ele>145</ele>
        <time>2020-09-04T13:14:08+02:00</time>
      </trkpt>
      <trkpt lat="48.00681" lon="1.21885">
        <ele>145</ele>
        <time>2020-09-04T13:14:08+02:00</time>
      </trkpt>
      <trkpt lat="48.00694" lon="1.21914">
        <ele>146</ele>
        <time>2020-09-04T13:14:08+02:00</time>
      </trkpt>
      <trkpt lat="48.00707" lon="1.21942">
        <ele>146</ele>
        <time>2020-09-04T13:14:08+02:00</time>
      </trkpt>
      <trkpt lat="48.00719" lon="1.21972">
        <ele>146</ele>
        <time>2020-09-04T13:14:08+02:00</time>
      </trkpt>
      <trkpt lat="48.0073" lon="1.22003">
        <ele>146</ele>
        <time>2020-09-04T13:16:16+02:00</time>
      </trkpt>
      <trkpt lat="48.00742" lon="1.22031">
        <ele>146</ele>
        <time>2020-09-04T13:16:16+02:00</time>
      </trkpt>
      <trkpt lat="48.00757" lon="1.22057">
        <ele>145</ele>
        <time>2020-09-04T13:16:16+02:00</time>
      </trkpt>
      <trkpt lat="48.0077" lon="1.22085">
        <ele>145</ele>
        <time>2020-09-04T13:16:16+02:00</time>
      </trkpt>
      <trkpt lat="48.00786" lon="1.22109">
        <ele>145</ele>
        <time>2020-09-04T13:16:16+02:00</time>
      </trkpt>
      <trkpt lat="48.00805" lon="1.22127">
        <ele>145</ele>
        <time>2020-09-04T13:16:16+02:00</time>
      </trkpt>
      <trkpt lat="48.00823" lon="1.2215">
        <ele>145</ele>
        <time>2020-09-04T13:18:24+02:00</time>
      </trkpt>
      <trkpt lat="48.00841" lon="1.2217">
        <ele>146</ele>
        <time>2020-09-04T13:18:24+02:00</time>
      </trkpt>
      <trkpt lat="48.00857" lon="1.22193">
        <ele>145</ele>
        <time>2020-09-04T13:18:24+02:00</time>
      </trkpt>
      <trkpt lat="48.00874" lon="1.22218">
        <ele>145</ele>
        <time>2020-09-04T13:18:24+02:00</time>
      </trkpt>
      <trkpt lat="48.00891" lon="1.22242">
        <ele>144</ele>
        <time>2020-09-04T13:18:24+02:00</time>
      </trkpt>
      <trkpt lat="48.00911" lon="1.2226">
        <ele>144</ele>
        <time>2020-09-04T13:18:24+02:00</time>
      </trkpt>
      <trkpt lat="48.00932" lon="1.22275">
        <ele>143</ele>
        <time>2020-09-04T13:20:32+02:00</time>
      </trkpt>
      <trkpt lat="48.00952" lon="1.22291">
        <ele>142</ele>
        <time>2020-09-04T13:20:32+02:00</time>
      </trkpt>
      <trkpt lat="48.00972" lon="1.2231">
        <ele>141</ele>
        <time>2020-09-04T13:20:32+02:00</time>
      </trkpt>
      <trkpt lat="48.00995" lon="1.22321">
        <ele>140</ele>
        <time>2020-09-04T13:20:32+02:00</time>
      </trkpt>
      <trkpt lat="48.01015" lon="1.22339">
        <ele>139</ele>
        <time>2020-09-04T13:20:32+02:00</time>
      </trkpt>
      <trkpt lat="48.01035" lon="1.22356">
        <ele>138</ele>
        <time>2020-09-04T13:20:32+02:00</time>
      </trkpt>
      <trkpt lat="48.01053" lon="1.22379">
        <ele>138</ele>
        <time>2020-09-04T13:22:40+02:00</time>
      </trkpt>
      <trkpt lat="48.01062" lon="1.22386">
        <ele>138</ele>
        <time>2021-03-05T17:31:31+01:00</time>
      </trkpt>
      <trkpt lat="48.01064" lon="1.22409">
        <ele>138</ele>
        <time>2020-09-04T13:22:40+02:00</time>
      </trkpt>
      <trkpt lat="48.0106" lon="1.22442">
        <ele>140</ele>
        <time>2020-09-04T13:22:40+02:00</time>
      </trkpt>
      <trkpt lat="48.01059" lon="1.22476">
        <ele>141</ele>
        <time>2020-09-04T13:22:40+02:00</time>
      </trkpt>
      <trkpt lat="48.01069" lon="1.22507">
        <ele>143</ele>
        <time>2020-09-04T13:22:40+02:00</time>
      </trkpt>
      <trkpt lat="48.01071" lon="1.22522">
        <ele>144</ele>
        <time>2020-09-04T13:24:48+02:00</time>
      </trkpt>
      <trkpt lat="48.01074" lon="1.22536">
        <ele>145</ele>
        <time>2020-09-04T13:24:48+02:00</time>
      </trkpt>
      <trkpt lat="48.01077" lon="1.22553">
        <ele>146</ele>
        <time>2020-09-04T13:24:48+02:00</time>
      </trkpt>
      <trkpt lat="48.01081" lon="1.22573">
        <ele>147</ele>
        <time>2020-09-04T13:24:48+02:00</time>
      </trkpt>
      <trkpt lat="48.01082" lon="1.22577">
        <ele>147</ele>
        <time>2020-09-04T13:26:56+02:00</time>
      </trkpt>
      <trkpt lat="48.01088" lon="1.22595">
        <ele>147</ele>
        <time>2020-09-04T13:26:56+02:00</time>
      </trkpt>
      <trkpt lat="48.01091" lon="1.2261">
        <ele>148</ele>
        <time>2020-09-04T13:26:56+02:00</time>
      </trkpt>
      <trkpt lat="48.011" lon="1.22642">
        <ele>148</ele>
        <time>2020-09-04T13:29:04+02:00</time>
      </trkpt>
      <trkpt lat="48.01107" lon="1.22674">
        <ele>149</ele>
        <time>2020-09-04T13:29:04+02:00</time>
      </trkpt>
      <trkpt lat="48.01115" lon="1.22706">
        <ele>148</ele>
        <time>2020-09-04T13:29:04+02:00</time>
      </trkpt>
      <trkpt lat="48.01114" lon="1.22741">
        <ele>147</ele>
        <time>2020-09-04T13:29:04+02:00</time>
      </trkpt>
      <trkpt lat="48.01111" lon="1.22774">
        <ele>146</ele>
        <time>2020-09-04T13:29:04+02:00</time>
      </trkpt>
      <trkpt lat="48.01107" lon="1.22808">
        <ele>146</ele>
        <time>2020-09-04T13:29:04+02:00</time>
      </trkpt>
      <trkpt lat="48.01106" lon="1.22842">
        <ele>146</ele>
        <time>2020-09-04T13:29:04+02:00</time>
      </trkpt>
      <trkpt lat="48.01099" lon="1.22874">
        <ele>145</ele>
        <time>2020-09-04T13:31:12+02:00</time>
      </trkpt>
      <trkpt lat="48.01098" lon="1.22909">
        <ele>144</ele>
        <time>2020-09-04T13:31:12+02:00</time>
      </trkpt>
      <trkpt lat="48.01102" lon="1.22942">
        <ele>144</ele>
        <time>2020-09-04T13:31:12+02:00</time>
      </trkpt>
      <trkpt lat="48.01115" lon="1.22971">
        <ele>144</ele>
        <time>2020-09-04T13:31:12+02:00</time>
      </trkpt>
      <trkpt lat="48.01137" lon="1.22979">
        <ele>145</ele>
        <time>2020-09-04T13:31:12+02:00</time>
      </trkpt>
      <trkpt lat="48.01159" lon="1.22988">
        <ele>146</ele>
        <time>2020-09-04T13:33:20+02:00</time>
      </trkpt>
      <trkpt lat="48.01182" lon="1.22994">
        <ele>147</ele>
        <time>2020-09-04T13:33:20+02:00</time>
      </trkpt>
      <trkpt lat="48.01207" lon="1.23008">
        <ele>148</ele>
        <time>2020-09-04T13:33:20+02:00</time>
      </trkpt>
      <trkpt lat="48.01228" lon="1.2301">
        <ele>149</ele>
        <time>2020-09-04T13:33:20+02:00</time>
      </trkpt>
      <trkpt lat="48.01251" lon="1.23027">
        <ele>149</ele>
        <time>2020-09-04T13:33:20+02:00</time>
      </trkpt>
      <trkpt lat="48.01271" lon="1.23034">
        <ele>149</ele>
        <time>2020-09-04T13:33:20+02:00</time>
      </trkpt>
      <trkpt lat="48.01293" lon="1.23044">
        <ele>149</ele>
        <time>2020-09-04T13:33:20+02:00</time>
      </trkpt>
      <trkpt lat="48.01315" lon="1.23053">
        <ele>148</ele>
        <time>2020-09-04T13:35:28+02:00</time>
      </trkpt>
      <trkpt lat="48.01337" lon="1.23067">
        <ele>147</ele>
        <time>2020-09-04T13:35:28+02:00</time>
      </trkpt>
      <trkpt lat="48.01359" lon="1.23075">
        <ele>147</ele>
        <time>2020-09-04T13:35:28+02:00</time>
      </trkpt>
      <trkpt lat="48.0138" lon="1.23086">
        <ele>148</ele>
        <time>2020-09-04T13:35:28+02:00</time>
      </trkpt>
      <trkpt lat="48.01403" lon="1.23096">
        <ele>148</ele>
        <time>2020-09-04T13:35:28+02:00</time>
      </trkpt>
      <trkpt lat="48.01424" lon="1.23105">
        <ele>148</ele>
        <time>2020-09-04T13:35:28+02:00</time>
      </trkpt>
      <trkpt lat="48.01446" lon="1.2312">
        <ele>147</ele>
        <time>2021-03-05T17:34:36+01:00</time>
      </trkpt>
      <trkpt lat="48.01437" lon="1.23134">
        <ele>146</ele>
        <time>2020-09-04T13:37:36+02:00</time>
      </trkpt>
      <trkpt lat="48.01427" lon="1.23165">
        <ele>144</ele>
        <time>2020-09-04T13:37:36+02:00</time>
      </trkpt>
      <trkpt lat="48.01415" lon="1.23193">
        <ele>144</ele>
        <time>2020-09-04T13:37:36+02:00</time>
      </trkpt>
      <trkpt lat="48.014" lon="1.23221">
        <ele>143</ele>
        <time>2020-09-04T13:37:36+02:00</time>
      </trkpt>
      <trkpt lat="48.01386" lon="1.23243">
        <ele>142</ele>
        <time>2020-09-04T13:37:36+02:00</time>
      </trkpt>
      <trkpt lat="48.01369" lon="1.2327">
        <ele>141</ele>
        <time>2020-09-04T13:37:36+02:00</time>
      </trkpt>
      <trkpt lat="48.01351" lon="1.23299">
        <ele>141</ele>
        <time>2020-09-04T13:39:44+02:00</time>
      </trkpt>
      <trkpt lat="48.01337" lon="1.23326">
        <ele>140</ele>
        <time>2020-09-04T13:39:44+02:00</time>
      </trkpt>
      <trkpt lat="48.01359" lon="1.23347">
        <ele>140</ele>
        <time>2020-09-04T13:39:44+02:00</time>
      </trkpt>
      <trkpt lat="48.01376" lon="1.23346">
        <ele>140</ele>
        <time>2021-03-05T17:35:26+01:00</time>
      </trkpt>
      <trkpt lat="48.01382" lon="1.23349">
        <ele>140</ele>
        <time>2020-09-04T13:41:52+02:00</time>
      </trkpt>
      <trkpt lat="48.01372" lon="1.23388">
        <ele>138</ele>
        <time>2020-09-04T13:41:52+02:00</time>
      </trkpt>
      <trkpt lat="48.01365" lon="1.23421">
        <ele>137</ele>
        <time>2020-09-04T13:41:52+02:00</time>
      </trkpt>
      <trkpt lat="48.01341" lon="1.23429">
        <ele>137</ele>
        <time>2020-09-04T13:41:52+02:00</time>
      </trkpt>
      <trkpt lat="48.01328" lon="1.23432">
        <ele>137</ele>
        <time>2021-03-05T17:35:51+01:00</time>
      </trkpt>
      <trkpt lat="48.01322" lon="1.23448">
        <ele>136</ele>
        <time>2020-09-04T13:44:00+02:00</time>
      </trkpt>
      <trkpt lat="48.01321" lon="1.23482">
        <ele>134</ele>
        <time>2020-09-04T13:44:00+02:00</time>
      </trkpt>
      <trkpt lat="48.01311" lon="1.23517">
        <ele>131</ele>
        <time>2020-09-04T13:44:00+02:00</time>
      </trkpt>
      <trkpt lat="48.01304" lon="1.23542">
        <ele>127</ele>
        <time>2020-09-04T13:44:00+02:00</time>
      </trkpt>
      <trkpt lat="48.01293" lon="1.2357">
        <ele>122</ele>
        <time>2020-09-04T13:48:16+02:00</time>
      </trkpt>
      <trkpt lat="48.01282" lon="1.23601">
        <ele>115</ele>
        <time>2020-09-04T13:48:16+02:00</time>
      </trkpt>
      <trkpt lat="48.01268" lon="1.23628">
        <ele>110</ele>
        <time>2020-09-04T13:48:16+02:00</time>
      </trkpt>
      <trkpt lat="48.0126" lon="1.23645">
        <ele>106</ele>
        <time>2021-03-05T17:36:31+01:00</time>
      </trkpt>
      <trkpt lat="48.01247" lon="1.23629">
        <ele>106</ele>
        <time>2020-09-04T13:48:16+02:00</time>
      </trkpt>
      <trkpt lat="48.0123" lon="1.23608">
        <ele>106</ele>
        <time>2020-09-04T13:50:24+02:00</time>
      </trkpt>
      <trkpt lat="48.0121" lon="1.23586">
        <ele>105</ele>
        <time>2020-09-04T13:50:24+02:00</time>
      </trkpt>
      <trkpt lat="48.01192" lon="1.23568">
        <ele>106</ele>
        <time>2020-09-04T13:50:24+02:00</time>
      </trkpt>
      <trkpt lat="48.01173" lon="1.23548">
        <ele>106</ele>
        <time>2020-09-04T13:52:32+02:00</time>
      </trkpt>
      <trkpt lat="48.01154" lon="1.23531">
        <ele>106</ele>
        <time>2020-09-04T13:52:32+02:00</time>
      </trkpt>
      <trkpt lat="48.01128" lon="1.23502">
        <ele>106</ele>
        <time>2020-09-04T13:52:32+02:00</time>
      </trkpt>
      <trkpt lat="48.01112" lon="1.23525">
        <ele>103</ele>
        <time>2020-09-04T13:52:32+02:00</time>
      </trkpt>
      <trkpt lat="48.01096" lon="1.2355">
        <ele>102</ele>
        <time>2020-09-04T13:54:40+02:00</time>
      </trkpt>
      <trkpt lat="48.0108" lon="1.23573">
        <ele>102</ele>
        <time>2020-09-04T13:54:40+02:00</time>
      </trkpt>
      <trkpt lat="48.01062" lon="1.23596">
        <ele>102</ele>
        <time>2020-09-04T13:54:40+02:00</time>
      </trkpt>
      <trkpt lat="48.01047" lon="1.23621">
        <ele>102</ele>
        <time>2020-09-04T13:54:40+02:00</time>
      </trkpt>
      <trkpt lat="48.01034" lon="1.2363">
        <ele>103</ele>
        <time>2021-03-05T17:37:36+01:00</time>
      </trkpt>
      <trkpt lat="48.01016" lon="1.23654">
        <ele>104</ele>
        <time>2020-09-04T13:54:40+02:00</time>
      </trkpt>
      <trkpt lat="48.01045" lon="1.23676">
        <ele>102</ele>
        <time>2020-09-04T13:58:56+02:00</time>
      </trkpt>
      <trkpt lat="48.01067" lon="1.23684">
        <ele>100</ele>
        <time>2020-09-04T13:58:56+02:00</time>
      </trkpt>
      <trkpt lat="48.01089" lon="1.23692">
        <ele>99</ele>
        <time>2020-09-04T13:58:56+02:00</time>
      </trkpt>
      <trkpt lat="48.01112" lon="1.23701">
        <ele>98</ele>
        <time>2020-09-04T13:58:56+02:00</time>
      </trkpt>
      <trkpt lat="48.01134" lon="1.23709">
        <ele>97</ele>
        <time>2020-09-04T14:01:04+02:00</time>
      </trkpt>
      <trkpt lat="48.01155" lon="1.23722">
        <ele>97</ele>
        <time>2020-09-04T14:01:04+02:00</time>
      </trkpt>
      <trkpt lat="48.01173" lon="1.23743">
        <ele>96</ele>
        <time>2020-09-04T14:01:04+02:00</time>
      </trkpt>
      <trkpt lat="48.01189" lon="1.23768">
        <ele>97</ele>
        <time>2020-09-04T14:01:04+02:00</time>
      </trkpt>
      <trkpt lat="48.01207" lon="1.23791">
        <ele>98</ele>
        <time>2020-09-04T14:01:04+02:00</time>
      </trkpt>
      <trkpt lat="48.01223" lon="1.23814">
        <ele>99</ele>
        <time>2020-09-04T14:01:04+02:00</time>
      </trkpt>
      <trkpt lat="48.01244" lon="1.23827">
        <ele>100</ele>
        <time>2020-09-04T14:01:04+02:00</time>
      </trkpt>
      <trkpt lat="48.01265" lon="1.23842">
        <ele>101</ele>
        <time>2020-09-04T14:03:12+02:00</time>
      </trkpt>
      <trkpt lat="48.01281" lon="1.23865">
        <ele>99</ele>
        <time>2020-09-04T14:03:12+02:00</time>
      </trkpt>
      <trkpt lat="48.01291" lon="1.23895">
        <ele>98</ele>
        <time>2020-09-04T14:03:12+02:00</time>
      </trkpt>
      <trkpt lat="48.01302" lon="1.23926">
        <ele>97</ele>
        <time>2020-09-04T14:03:12+02:00</time>
      </trkpt>
      <trkpt lat="48.01312" lon="1.23958">
        <ele>97</ele>
        <time>2020-09-04T14:03:12+02:00</time>
      </trkpt>
      <trkpt lat="48.01322" lon="1.23988">
        <ele>98</ele>
        <time>2020-09-04T14:03:12+02:00</time>
      </trkpt>
      <trkpt lat="48.0133" lon="1.24022">
        <ele>98</ele>
        <time>2020-09-04T14:05:20+02:00</time>
      </trkpt>
      <trkpt lat="48.01326" lon="1.24055">
        <ele>99</ele>
        <time>2020-09-04T14:05:20+02:00</time>
      </trkpt>
      <trkpt lat="48.01331" lon="1.24089">
        <ele>100</ele>
        <time>2020-09-04T14:05:20+02:00</time>
      </trkpt>
      <trkpt lat="48.01341" lon="1.2412">
        <ele>100</ele>
        <time>2020-09-04T14:05:20+02:00</time>
      </trkpt>
      <trkpt lat="48.01348" lon="1.24153">
        <ele>101</ele>
        <time>2020-09-04T14:05:20+02:00</time>
      </trkpt>
      <trkpt lat="48.01357" lon="1.24185">
        <ele>101</ele>
        <time>2020-09-04T14:05:20+02:00</time>
      </trkpt>
      <trkpt lat="48.01363" lon="1.24218">
        <ele>101</ele>
        <time>2020-09-04T14:05:20+02:00</time>
      </trkpt>
      <trkpt lat="48.01372" lon="1.2425">
        <ele>101</ele>
        <time>2020-09-04T14:07:28+02:00</time>
      </trkpt>
      <trkpt lat="48.01381" lon="1.24281">
        <ele>101</ele>
        <time>2020-09-04T14:07:28+02:00</time>
      </trkpt>
      <trkpt lat="48.01391" lon="1.24312">
        <ele>101</ele>
        <time>2020-09-04T14:07:28+02:00</time>
      </trkpt>
      <trkpt lat="48.01398" lon="1.24345">
        <ele>101</ele>
        <time>2020-09-04T14:07:28+02:00</time>
      </trkpt>
      <trkpt lat="48.01403" lon="1.24378">
        <ele>101</ele>
        <time>2020-09-04T14:07:28+02:00</time>
      </trkpt>
      <trkpt lat="48.01404" lon="1.24394">
        <ele>101</ele>
        <time>2021-03-05T17:40:11+01:00</time>
      </trkpt>
      <trkpt lat="48.0139" lon="1.24405">
        <ele>100</ele>
        <time>2020-09-04T14:07:28+02:00</time>
      </trkpt>
      <trkpt lat="48.01378" lon="1.24422">
        <ele>100</ele>
        <time>2021-03-05T17:40:21+01:00</time>
      </trkpt>
      <trkpt lat="48.01363" lon="1.24434">
        <ele>99</ele>
        <time>2021-03-05T17:40:26+01:00</time>
      </trkpt>
      <trkpt lat="48.0134" lon="1.24458">
        <ele>98</ele>
        <time>2021-03-05T17:40:31+01:00</time>
      </trkpt>
      <trkpt lat="48.01313" lon="1.24478">
        <ele>97</ele>
        <time>2021-03-05T17:40:36+01:00</time>
      </trkpt>
      <trkpt lat="48.013" lon="1.24483">
        <ele>97</ele>
        <time>2021-03-05T17:40:41+01:00</time>
      </trkpt>
      <trkpt lat="48.01292" lon="1.24501">
        <ele>97</ele>
        <time>2021-03-05T17:40:46+01:00</time>
      </trkpt>
      <trkpt lat="48.01297" lon="1.24519">
        <ele>97</ele>
        <time>2021-03-05T17:40:51+01:00</time>
      </trkpt>
      <trkpt lat="48.01308" lon="1.2455">
        <ele>98</ele>
        <time>2021-03-05T17:40:56+01:00</time>
      </trkpt>
      <trkpt lat="48.01323" lon="1.24601">
        <ele>100</ele>
        <time>2021-03-05T17:41:01+01:00</time>
      </trkpt>
      <trkpt lat="48.01345" lon="1.24666">
        <ele>102</ele>
        <time>2021-03-05T17:41:06+01:00</time>
      </trkpt>
      <trkpt lat="48.01377" lon="1.24766">
        <ele>100</ele>
        <time>2021-03-05T17:41:11+01:00</time>
      </trkpt>
      <trkpt lat="48.01391" lon="1.24837">
        <ele>100</ele>
        <time>2021-03-05T17:41:16+01:00</time>
      </trkpt>
      <trkpt lat="48.01423" lon="1.24926">
        <ele>100</ele>
        <time>2021-03-05T17:41:21+01:00</time>
      </trkpt>
      <trkpt lat="48.01449" lon="1.25008">
        <ele>101</ele>
        <time>2021-03-05T17:41:26+01:00</time>
      </trkpt>
      <trkpt lat="48.01468" lon="1.25069">
        <ele>99</ele>
        <time>2021-03-05T17:41:31+01:00</time>
      </trkpt>
      <trkpt lat="48.01472" lon="1.25111">
        <ele>98</ele>
        <time>2021-03-05T17:41:36+01:00</time>
      </trkpt>
      <trkpt lat="48.01477" lon="1.25173">
        <ele>97</ele>
        <time>2021-03-05T17:41:41+01:00</time>
      </trkpt>
      <trkpt lat="48.01482" lon="1.25227">
        <ele>98</ele>
        <time>2021-03-05T17:41:46+01:00</time>
      </trkpt>
      <trkpt lat="48.01485" lon="1.25294">
        <ele>98</ele>
        <time>2021-03-05T17:41:51+01:00</time>
      </trkpt>
      <trkpt lat="48.01486" lon="1.25343">
        <ele>97</ele>
        <time>2021-03-05T17:41:56+01:00</time>
      </trkpt>
      <trkpt lat="48.01476" lon="1.2542">
        <ele>99</ele>
        <time>2021-03-05T17:42:01+01:00</time>
      </trkpt>
      <trkpt lat="48.01458" lon="1.25623">
        <ele>99</ele>
        <time>2021-03-05T17:42:06+01:00</time>
      </trkpt>
      <trkpt lat="48.01445" lon="1.25734">
        <ele>100</ele>
        <time>2021-03-05T17:42:11+01:00</time>
      </trkpt>
      <trkpt lat="48.01431" lon="1.25798">
        <ele>100</ele>
        <time>2021-03-05T17:42:16+01:00</time>
      </trkpt>
      <trkpt lat="48.01419" lon="1.25826">
        <ele>100</ele>
        <time>2021-03-05T17:42:21+01:00</time>
      </trkpt>
      <trkpt lat="48.01405" lon="1.25847">
        <ele>100</ele>
        <time>2021-03-05T17:42:26+01:00</time>
      </trkpt>
      <trkpt lat="48.01391" lon="1.25827">
        <ele>100</ele>
        <time>2021-03-05T17:42:31+01:00</time>
      </trkpt>
      <trkpt lat="48.01367" lon="1.25798">
        <ele>101</ele>
        <time>2020-09-04T14:30:56+02:00</time>
      </trkpt>
      <trkpt lat="48.01348" lon="1.2578">
        <ele>101</ele>
        <time>2020-09-04T14:30:56+02:00</time>
      </trkpt>
      <trkpt lat="48.01329" lon="1.2576">
        <ele>101</ele>
        <time>2020-09-04T14:30:56+02:00</time>
      </trkpt>
      <trkpt lat="48.01311" lon="1.25737">
        <ele>101</ele>
        <time>2020-09-04T14:33:04+02:00</time>
      </trkpt>
      <trkpt lat="48.01293" lon="1.25715">
        <ele>101</ele>
        <time>2020-09-04T14:33:04+02:00</time>
      </trkpt>
      <trkpt lat="48.01274" lon="1.25694">
        <ele>101</ele>
        <time>2020-09-04T14:33:04+02:00</time>
      </trkpt>
      <trkpt lat="48.01257" lon="1.25673">
        <ele>101</ele>
        <time>2020-09-04T14:33:04+02:00</time>
      </trkpt>
      <trkpt lat="48.0124" lon="1.25649">
        <ele>101</ele>
        <time>2020-09-04T14:33:04+02:00</time>
      </trkpt>
      <trkpt lat="48.01222" lon="1.25629">
        <ele>100</ele>
        <time>2020-09-04T14:33:04+02:00</time>
      </trkpt>
      <trkpt lat="48.01204" lon="1.25606">
        <ele>100</ele>
        <time>2020-09-04T14:35:12+02:00</time>
      </trkpt>
      <trkpt lat="48.01185" lon="1.25586">
        <ele>100</ele>
        <time>2020-09-04T14:35:12+02:00</time>
      </trkpt>
      <trkpt lat="48.01167" lon="1.25564">
        <ele>100</ele>
        <time>2020-09-04T14:35:12+02:00</time>
      </trkpt>
      <trkpt lat="48.01149" lon="1.25543">
        <ele>100</ele>
        <time>2020-09-04T14:35:12+02:00</time>
      </trkpt>
      <trkpt lat="48.0113" lon="1.25521">
        <ele>100</ele>
        <time>2020-09-04T14:35:12+02:00</time>
      </trkpt>
      <trkpt lat="48.01112" lon="1.25502">
        <ele>100</ele>
        <time>2020-09-04T14:35:12+02:00</time>
      </trkpt>
      <trkpt lat="48.01093" lon="1.2548">
        <ele>100</ele>
        <time>2020-09-04T14:35:12+02:00</time>
      </trkpt>
      <trkpt lat="48.01076" lon="1.25456">
        <ele>100</ele>
        <time>2020-09-04T14:37:20+02:00</time>
      </trkpt>
      <trkpt lat="48.01058" lon="1.25434">
        <ele>99</ele>
        <time>2020-09-04T14:37:20+02:00</time>
      </trkpt>
      <trkpt lat="48.01039" lon="1.25414">
        <ele>99</ele>
        <time>2020-09-04T14:37:20+02:00</time>
      </trkpt>
      <trkpt lat="48.01021" lon="1.25393">
        <ele>99</ele>
        <time>2020-09-04T14:37:20+02:00</time>
      </trkpt>
      <trkpt lat="48.01002" lon="1.25372">
        <ele>99</ele>
        <time>2020-09-04T14:37:20+02:00</time>
      </trkpt>
      <trkpt lat="48.00985" lon="1.2535">
        <ele>99</ele>
        <time>2020-09-04T14:37:20+02:00</time>
      </trkpt>
      <trkpt lat="48.00966" lon="1.25329">
        <ele>99</ele>
        <time>2020-09-04T14:37:20+02:00</time>
      </trkpt>
      <trkpt lat="48.00948" lon="1.25308">
        <ele>99</ele>
        <time>2020-09-04T14:41:36+02:00</time>
      </trkpt>
      <trkpt lat="48.0093" lon="1.25286">
        <ele>100</ele>
        <time>2020-09-04T14:41:36+02:00</time>
      </trkpt>
      <trkpt lat="48.00912" lon="1.25264">
        <ele>100</ele>
        <time>2020-09-04T14:41:36+02:00</time>
      </trkpt>
      <trkpt lat="48.00893" lon="1.25244">
        <ele>100</ele>
        <time>2020-09-04T14:41:36+02:00</time>
      </trkpt>
      <trkpt lat="48.00874" lon="1.25224">
        <ele>100</ele>
        <time>2020-09-04T14:41:36+02:00</time>
      </trkpt>
      <trkpt lat="48.00857" lon="1.252">
        <ele>100</ele>
        <time>2020-09-04T14:41:36+02:00</time>
      </trkpt>
      <trkpt lat="48.00839" lon="1.25178">
        <ele>100</ele>
        <time>2020-09-04T14:41:36+02:00</time>
      </trkpt>
      <trkpt lat="48.0082" lon="1.2516">
        <ele>100</ele>
        <time>2020-09-04T14:43:44+02:00</time>
      </trkpt>
      <trkpt lat="48.00802" lon="1.25138">
        <ele>100</ele>
        <time>2020-09-04T14:43:44+02:00</time>
      </trkpt>
      <trkpt lat="48.00786" lon="1.25113">
        <ele>100</ele>
        <time>2020-09-04T14:43:44+02:00</time>
      </trkpt>
      <trkpt lat="48.00796" lon="1.25082">
        <ele>99</ele>
        <time>2020-09-04T14:43:44+02:00</time>
      </trkpt>
      <trkpt lat="48.0081" lon="1.25056">
        <ele>98</ele>
        <time>2020-09-04T14:43:44+02:00</time>
      </trkpt>
      <trkpt lat="48.00825" lon="1.2503">
        <ele>97</ele>
        <time>2020-09-04T14:43:44+02:00</time>
      </trkpt>
      <trkpt lat="48.0084" lon="1.25003">
        <ele>97</ele>
        <time>2020-09-04T14:45:52+02:00</time>
      </trkpt>
      <trkpt lat="48.00856" lon="1.24978">
        <ele>97</ele>
        <time>2020-09-04T14:45:52+02:00</time>
      </trkpt>
      <trkpt lat="48.0087" lon="1.24951">
        <ele>96</ele>
        <time>2020-09-04T14:45:52+02:00</time>
      </trkpt>
      <trkpt lat="48.00883" lon="1.24923">
        <ele>96</ele>
        <time>2020-09-04T14:45:52+02:00</time>
      </trkpt>
      <trkpt lat="48.00899" lon="1.24897">
        <ele>95</ele>
        <time>2020-09-04T14:45:52+02:00</time>
      </trkpt>
      <trkpt lat="48.00913" lon="1.24869">
        <ele>94</ele>
        <time>2020-09-04T14:45:52+02:00</time>
      </trkpt>
      <trkpt lat="48.00915" lon="1.24842">
        <ele>93</ele>
        <time>2020-09-04T14:45:52+02:00</time>
      </trkpt>
      <trkpt lat="48.00895" lon="1.24822">
        <ele>94</ele>
        <time>2020-09-04T14:48:00+02:00</time>
      </trkpt>
      <trkpt lat="48.00877" lon="1.24803">
        <ele>95</ele>
        <time>2020-09-04T14:48:00+02:00</time>
      </trkpt>
      <trkpt lat="48.00857" lon="1.24783">
        <ele>96</ele>
        <time>2020-09-04T14:48:00+02:00</time>
      </trkpt>
      <trkpt lat="48.00839" lon="1.24762">
        <ele>97</ele>
        <time>2020-09-04T14:48:00+02:00</time>
      </trkpt>
      <trkpt lat="48.00824" lon="1.24746">
        <ele>97</ele>
        <time>2020-09-04T14:48:00+02:00</time>
      </trkpt>
      <trkpt lat="48.00805" lon="1.24721">
        <ele>96</ele>
        <time>2020-09-04T14:48:00+02:00</time>
      </trkpt>
      <trkpt lat="48.00786" lon="1.247">
        <ele>96</ele>
        <time>2020-09-04T14:50:08+02:00</time>
      </trkpt>
      <trkpt lat="48.00767" lon="1.24678">
        <ele>96</ele>
        <time>2020-09-04T14:50:08+02:00</time>
      </trkpt>
      <trkpt lat="48.00749" lon="1.24656">
        <ele>96</ele>
        <time>2020-09-04T14:50:08+02:00</time>
      </trkpt>
      <trkpt lat="48.0073" lon="1.24636">
        <ele>96</ele>
        <time>2020-09-04T14:50:08+02:00</time>
      </trkpt>
      <trkpt lat="48.00711" lon="1.24617">
        <ele>96</ele>
        <time>2020-09-04T14:50:08+02:00</time>
      </trkpt>
      <trkpt lat="48.00692" lon="1.246">
        <ele>96</ele>
        <time>2020-09-04T14:50:08+02:00</time>
      </trkpt>
      <trkpt lat="48.00673" lon="1.24582">
        <ele>96</ele>
        <time>2020-09-04T14:52:16+02:00</time>
      </trkpt>
      <trkpt lat="48.00653" lon="1.24563">
        <ele>97</ele>
        <time>2020-09-04T14:52:16+02:00</time>
      </trkpt>
      <trkpt lat="48.00637" lon="1.24538">
        <ele>97</ele>
        <time>2020-09-04T14:52:16+02:00</time>
      </trkpt>
      <trkpt lat="48.00621" lon="1.24511">
        <ele>98</ele>
        <time>2020-09-04T14:52:16+02:00</time>
      </trkpt>
      <trkpt lat="48.00608" lon="1.24498">
        <ele>99</ele>
        <time>2021-03-05T17:47:31+01:00</time>
      </trkpt>
      <trkpt lat="48.00594" lon="1.24506">
        <ele>99</ele>
        <time>2020-09-04T14:52:16+02:00</time>
      </trkpt>
      <trkpt lat="48.00572" lon="1.24519">
        <ele>99</ele>
        <time>2020-09-04T14:52:16+02:00</time>
      </trkpt>
      <trkpt lat="48.00553" lon="1.2453">
        <ele>99</ele>
        <time>2020-09-04T14:54:24+02:00</time>
      </trkpt>
      <trkpt lat="48.0053" lon="1.24539">
        <ele>99</ele>
        <time>2020-09-04T14:54:24+02:00</time>
      </trkpt>
      <trkpt lat="48.00508" lon="1.24549">
        <ele>100</ele>
        <time>2020-09-04T14:54:24+02:00</time>
      </trkpt>
      <trkpt lat="48.00487" lon="1.24563">
        <ele>100</ele>
        <time>2020-09-04T14:54:24+02:00</time>
      </trkpt>
      <trkpt lat="48.00467" lon="1.2458">
        <ele>102</ele>
        <time>2020-09-04T14:54:24+02:00</time>
      </trkpt>
      <trkpt lat="48.00445" lon="1.2457">
        <ele>103</ele>
        <time>2020-09-04T14:54:24+02:00</time>
      </trkpt>
      <trkpt lat="48.00432" lon="1.24553">
        <ele>103</ele>
        <time>2021-03-05T17:48:16+01:00</time>
      </trkpt>
      <trkpt lat="48.00421" lon="1.24546">
        <ele>104</ele>
        <time>2020-09-04T14:58:40+02:00</time>
      </trkpt>
      <trkpt lat="48.00416" lon="1.24547">
        <ele>104</ele>
        <time>2021-03-05T17:48:26+01:00</time>
      </trkpt>
      <trkpt lat="48.00428" lon="1.24586">
        <ele>105</ele>
        <time>2021-03-05T17:48:31+01:00</time>
      </trkpt>
      <trkpt lat="48.00412" lon="1.24599">
        <ele>108</ele>
        <time>2020-09-04T14:58:40+02:00</time>
      </trkpt>
      <trkpt lat="48.00394" lon="1.24622">
        <ele>112</ele>
        <time>2020-09-04T14:58:40+02:00</time>
      </trkpt>
      <trkpt lat="48.00378" lon="1.24648">
        <ele>115</ele>
        <time>2020-09-04T14:58:40+02:00</time>
      </trkpt>
      <trkpt lat="48.00361" lon="1.24671">
        <ele>118</ele>
        <time>2020-09-04T14:58:40+02:00</time>
      </trkpt>
      <trkpt lat="48.00343" lon="1.24685">
        <ele>120</ele>
        <time>2020-09-04T14:58:40+02:00</time>
      </trkpt>
      <trkpt lat="48.0032" lon="1.24697">
        <ele>121</ele>
        <time>2020-09-04T15:00:48+02:00</time>
      </trkpt>
      <trkpt lat="48.00304" lon="1.24703">
        <ele>122</ele>
        <time>2021-03-05T17:49:06+01:00</time>
      </trkpt>
      <trkpt lat="48.00297" lon="1.24693">
        <ele>122</ele>
        <time>2020-09-04T15:00:48+02:00</time>
      </trkpt>
      <trkpt lat="48.0028" lon="1.24672">
        <ele>122</ele>
        <time>2020-09-04T15:00:48+02:00</time>
      </trkpt>
      <trkpt lat="48.00262" lon="1.24651">
        <ele>122</ele>
        <time>2020-09-04T15:00:48+02:00</time>
      </trkpt>
      <trkpt lat="48.00244" lon="1.24629">
        <ele>123</ele>
        <time>2020-09-04T15:02:56+02:00</time>
      </trkpt>
      <trkpt lat="48.00225" lon="1.24609">
        <ele>122</ele>
        <time>2020-09-04T15:02:56+02:00</time>
      </trkpt>
      <trkpt lat="48.00207" lon="1.24589">
        <ele>122</ele>
        <time>2020-09-04T15:02:56+02:00</time>
      </trkpt>
      <trkpt lat="48.0019" lon="1.24565">
        <ele>121</ele>
        <time>2020-09-04T15:02:56+02:00</time>
      </trkpt>
      <trkpt lat="48.00175" lon="1.24539">
        <ele>121</ele>
        <time>2020-09-04T15:02:56+02:00</time>
      </trkpt>
      <trkpt lat="48.00159" lon="1.24515">
        <ele>120</ele>
        <time>2020-09-04T15:02:56+02:00</time>
      </trkpt>
      <trkpt lat="48.00141" lon="1.24492">
        <ele>120</ele>
        <time>2020-09-04T15:02:56+02:00</time>
      </trkpt>
      <trkpt lat="48.00125" lon="1.24469">
        <ele>119</ele>
        <time>2020-09-04T15:05:04+02:00</time>
      </trkpt>
      <trkpt lat="48.00106" lon="1.24449">
        <ele>119</ele>
        <time>2020-09-04T15:05:04+02:00</time>
      </trkpt>
      <trkpt lat="48.00094" lon="1.2442">
        <ele>118</ele>
        <time>2020-09-04T15:05:04+02:00</time>
      </trkpt>
      <trkpt lat="48.0008" lon="1.24393">
        <ele>117</ele>
        <time>2020-09-04T15:05:04+02:00</time>
      </trkpt>
      <trkpt lat="48.00063" lon="1.24368">
        <ele>116</ele>
        <time>2020-09-04T15:05:04+02:00</time>
      </trkpt>
      <trkpt lat="48.00044" lon="1.24347">
        <ele>115</ele>
        <time>2020-09-04T15:05:04+02:00</time>
      </trkpt>
      <trkpt lat="48.00024" lon="1.2433">
        <ele>114</ele>
        <time>2020-09-04T15:05:04+02:00</time>
      </trkpt>
      <trkpt lat="48.00003" lon="1.24316">
        <ele>114</ele>
        <time>2020-09-04T15:07:12+02:00</time>
      </trkpt>
      <trkpt lat="47.99981" lon="1.24304">
        <ele>113</ele>
        <time>2020-09-04T15:07:12+02:00</time>
      </trkpt>
      <trkpt lat="47.99958" lon="1.24296">
        <ele>113</ele>
        <time>2020-09-04T15:07:12+02:00</time>
      </trkpt>
      <trkpt lat="47.99939" lon="1.24278">
        <ele>113</ele>
        <time>2020-09-04T15:07:12+02:00</time>
      </trkpt>
      <trkpt lat="47.99918" lon="1.24264">
        <ele>114</ele>
        <time>2020-09-04T15:07:12+02:00</time>
      </trkpt>
      <trkpt lat="47.99898" lon="1.24246">
        <ele>114</ele>
        <time>2020-09-04T15:07:12+02:00</time>
      </trkpt>
      <trkpt lat="47.99877" lon="1.24232">
        <ele>114</ele>
        <time>2020-09-04T15:09:20+02:00</time>
      </trkpt>
      <trkpt lat="47.99856" lon="1.24218">
        <ele>114</ele>
        <time>2020-09-04T15:09:20+02:00</time>
      </trkpt>
      <trkpt lat="47.99837" lon="1.24199">
        <ele>114</ele>
        <time>2020-09-04T15:09:20+02:00</time>
      </trkpt>
      <trkpt lat="47.99817" lon="1.24183">
        <ele>114</ele>
        <time>2020-09-04T15:09:20+02:00</time>
      </trkpt>
      <trkpt lat="47.99798" lon="1.24162">
        <ele>113</ele>
        <time>2020-09-04T15:09:20+02:00</time>
      </trkpt>
      <trkpt lat="47.9978" lon="1.24141">
        <ele>112</ele>
        <time>2020-09-04T15:09:20+02:00</time>
      </trkpt>
      <trkpt lat="47.99761" lon="1.24122">
        <ele>112</ele>
        <time>2020-09-04T15:09:20+02:00</time>
      </trkpt>
      <trkpt lat="47.99742" lon="1.24102">
        <ele>112</ele>
        <time>2020-09-04T15:11:28+02:00</time>
      </trkpt>
      <trkpt lat="47.9972" lon="1.24093">
        <ele>111</ele>
        <time>2020-09-04T15:11:28+02:00</time>
      </trkpt>
      <trkpt lat="47.99697" lon="1.24092">
        <ele>111</ele>
        <time>2020-09-04T15:11:28+02:00</time>
      </trkpt>
      <trkpt lat="47.99679" lon="1.24085">
        <ele>111</ele>
        <time>2021-03-05T17:51:56+01:00</time>
      </trkpt>
      <trkpt lat="47.9968" lon="1.24068">
        <ele>111</ele>
        <time>2020-09-04T15:11:28+02:00</time>
      </trkpt>
      <trkpt lat="47.99677" lon="1.24033">
        <ele>111</ele>
        <time>2020-09-04T15:11:28+02:00</time>
      </trkpt>
      <trkpt lat="47.99676" lon="1.24">
        <ele>110</ele>
        <time>2020-09-04T15:11:28+02:00</time>
      </trkpt>
      <trkpt lat="47.99676" lon="1.23965">
        <ele>108</ele>
        <time>2020-09-04T15:13:36+02:00</time>
      </trkpt>
      <trkpt lat="47.99666" lon="1.23934">
        <ele>107</ele>
        <time>2020-09-04T15:13:36+02:00</time>
      </trkpt>
      <trkpt lat="47.99653" lon="1.23904">
        <ele>105</ele>
        <time>2020-09-04T15:13:36+02:00</time>
      </trkpt>
      <trkpt lat="47.99641" lon="1.23876">
        <ele>104</ele>
        <time>2020-09-04T15:13:36+02:00</time>
      </trkpt>
      <trkpt lat="47.99635" lon="1.23843">
        <ele>101</ele>
        <time>2020-09-04T15:13:36+02:00</time>
      </trkpt>
      <trkpt lat="47.99629" lon="1.23811">
        <ele>100</ele>
        <time>2020-09-04T15:13:36+02:00</time>
      </trkpt>
      <trkpt lat="47.99634" lon="1.23776">
        <ele>99</ele>
        <time>2020-09-04T15:13:36+02:00</time>
      </trkpt>
      <trkpt lat="47.99639" lon="1.23742">
        <ele>98</ele>
        <time>2020-09-04T15:15:44+02:00</time>
      </trkpt>
      <trkpt lat="47.99647" lon="1.2371">
        <ele>98</ele>
        <time>2020-09-04T15:15:44+02:00</time>
      </trkpt>
      <trkpt lat="47.99656" lon="1.23677">
        <ele>97</ele>
        <time>2020-09-04T15:15:44+02:00</time>
      </trkpt>
      <trkpt lat="47.99667" lon="1.23646">
        <ele>97</ele>
        <time>2020-09-04T15:15:44+02:00</time>
      </trkpt>
      <trkpt lat="47.99684" lon="1.23623">
        <ele>97</ele>
        <time>2020-09-04T15:15:44+02:00</time>
      </trkpt>
      <trkpt lat="47.997" lon="1.23599">
        <ele>97</ele>
        <time>2020-09-04T15:17:52+02:00</time>
      </trkpt>
      <trkpt lat="47.99716" lon="1.23575">
        <ele>98</ele>
        <time>2020-09-04T15:17:52+02:00</time>
      </trkpt>
      <trkpt lat="47.99725" lon="1.23544">
        <ele>98</ele>
        <time>2020-09-04T15:17:52+02:00</time>
      </trkpt>
      <trkpt lat="47.99741" lon="1.23519">
        <ele>99</ele>
        <time>2020-09-04T15:17:52+02:00</time>
      </trkpt>
      <trkpt lat="47.99761" lon="1.23499">
        <ele>99</ele>
        <time>2020-09-04T15:17:52+02:00</time>
      </trkpt>
      <trkpt lat="47.99745" lon="1.23481">
        <ele>99</ele>
        <time>2020-09-04T15:17:52+02:00</time>
      </trkpt>
      <trkpt lat="47.99728" lon="1.23468">
        <ele>99</ele>
        <time>2020-09-04T15:17:52+02:00</time>
      </trkpt>
      <trkpt lat="47.99729" lon="1.23435">
        <ele>99</ele>
        <time>2021-03-05T17:53:51+01:00</time>
      </trkpt>
      <trkpt lat="47.9973" lon="1.23409">
        <ele>99</ele>
        <time>2020-09-04T15:20:00+02:00</time>
      </trkpt>
      <trkpt lat="47.99733" lon="1.23381">
        <ele>99</ele>
        <time>2021-03-05T17:54:01+01:00</time>
      </trkpt>
      <trkpt lat="47.99727" lon="1.23374">
        <ele>98</ele>
        <time>2020-09-04T15:20:00+02:00</time>
      </trkpt>
      <trkpt lat="47.99722" lon="1.23373">
        <ele>98</ele>
        <time>2021-03-05T17:54:11+01:00</time>
      </trkpt>
      <trkpt lat="47.99713" lon="1.23339">
        <ele>98</ele>
        <time>2020-09-04T15:20:00+02:00</time>
      </trkpt>
      <trkpt lat="47.99733" lon="1.23329">
        <ele>98</ele>
        <time>2020-09-04T15:20:00+02:00</time>
      </trkpt>
    </trkseg>
  </trk>
</gpx>